| time (UTC) | temp F | wind direction | speed MPH | gust MPH | rain 1hr in | rain 24hr in | rain mn in | humidity % | barometer mb |
| 20260903143322 | 76 | 31 | 0.0 | 0.0 | 0.00 | 0.07 | 0.07 | 86 | 1010.1 |
| 20260903143119 | 76 | 27 | 0.0 | 0.0 | 0.00 | 0.07 | 0.07 | 86 | 1010.2 |
| 20260903142920 | 76 | 25 | 0.0 | 0.0 | 0.00 | 0.07 | 0.07 | 86 | 1010.2 |
| 20260903142719 | 76 | 25 | 0.0 | 0.0 | 0.00 | 0.07 | 0.07 | 86 | 1010.1 |
| 20260903142622 | 76 | 48 | 0.0 | 0.0 | 0.00 | 0.07 | 0.07 | 86 | 1010.0 |
| 20260903142617 | 76 | 27 | 0.0 | 0.0 | 0.00 | 0.07 | 0.07 | 86 | 1010.0 |
| 20260903142421 | 76 | 39 | 0.0 | 0.0 | 0.00 | 0.07 | 0.07 | 87 | 1009.9 |
| 20260903142120 | 76 | 32 | 0.0 | 0.0 | 0.00 | 0.07 | 0.07 | 87 | 1010.0 |
| 20260903142115 | 76 | 34 | 0.0 | 0.0 | 0.00 | 0.07 | 0.07 | 87 | 1010.0 |
| 20260903142013 | 76 | 32 | 0.0 | 0.0 | 0.00 | 0.07 | 0.07 | 87 | 1010.2 |
| 20260903141718 | 76 | 34 | 0.0 | 0.0 | 0.00 | 0.07 | 0.07 | 87 | 1010.0 |
| 20260903141615 | 76 | 62 | 0.0 | 0.0 | 0.00 | 0.07 | 0.07 | 87 | 1010.1 |
| 20260903141520 | 76 | 61 | 0.0 | 0.0 | 0.00 | 0.07 | 0.07 | 88 | 1010.1 |
| 20260903141416 | 76 | 31 | 0.0 | 0.0 | 0.00 | 0.07 | 0.07 | 88 | 1010.1 |
| 20260903141357 | 76 | 45 | 0.0 | 0.0 | 0.00 | 0.07 | 0.07 | 88 | 1010.1 |
| 20260903141105 | 76 | 31 | 0.0 | 0.0 | 0.00 | 0.07 | 0.07 | 88 | 1010.1 |
| 20260903141003 | 75 | 51 | 0.0 | 0.0 | 0.00 | 0.07 | 0.07 | 88 | 1010.1 |
| 20260903140705 | 75 | 49 | 0.0 | 0.0 | 0.00 | 0.07 | 0.07 | 87 | 1010.2 |
| 20260903140614 | 75 | 49 | 0.0 | 0.0 | 0.00 | 0.07 | 0.07 | 87 | 1010.2 |
| 20260903140607 | 75 | 51 | 0.0 | 0.0 | 0.00 | 0.07 | 0.07 | 87 | 1010.2 |
| 20260903140302 | 75 | 51 | 0.0 | 0.0 | 0.00 | 0.07 | 0.07 | 87 | 1010.3 |
| 20260903140121 | 75 | 48 | 0.0 | 0.0 | 0.00 | 0.07 | 0.07 | 87 | 1010.3 |
| 20260903140115 | 75 | 49 | 0.0 | 0.0 | 0.00 | 0.07 | 0.07 | 87 | 1010.3 |
| 20260903135902 | 75 | 49 | 0.0 | 0.0 | 0.00 | 0.07 | 0.07 | 87 | 1010.3 |
| 20260903135702 | 75 | 51 | 0.0 | 0.0 | 0.00 | 0.07 | 0.07 | 87 | 1010.4 |
| 20260903135612 | 75 | 49 | 0.0 | 0.0 | 0.00 | 0.07 | 0.07 | 87 | 1010.3 |
| 20260903135601 | 75 | 49 | 0.0 | 0.0 | 0.00 | 0.07 | 0.07 | 87 | 1010.3 |
| 20260903135306 | 76 | 49 | 0.0 | 0.0 | 0.00 | 0.07 | 0.07 | 88 | 1010.3 |
| 20260903135201 | 76 | 51 | 0.0 | 0.0 | 0.00 | 0.07 | 0.07 | 88 | 1010.1 |
| 20260903135112 | 76 | 51 | 0.0 | 0.0 | 0.00 | 0.07 | 0.07 | 88 | 1010.1 |
| 20260903134902 | 76 | 51 | 0.0 | 0.0 | 0.00 | 0.07 | 0.07 | 87 | 1010.2 |
| 20260903134704 | 76 | 48 | 0.0 | 0.0 | 0.00 | 0.07 | 0.07 | 87 | 1010.2 |
| 20260903134612 | 76 | 35 | 0.0 | 0.0 | 0.00 | 0.07 | 0.07 | 87 | 1010.1 |
| 20260903134505 | 76 | 34 | 0.0 | 0.0 | 0.00 | 0.07 | 0.07 | 87 | 1010.2 |
| 20260903134305 | 76 | 31 | 0.0 | 0.0 | 0.00 | 0.07 | 0.07 | 88 | 1010.1 |
| 20260903134113 | 76 | 39 | 0.0 | 0.0 | 0.00 | 0.07 | 0.07 | 88 | 1010.2 |
| 20260903134108 | 76 | 41 | 0.0 | 0.0 | 0.00 | 0.07 | 0.07 | 88 | 1010.2 |
| 20260903134006 | 76 | 58 | 0.0 | 0.0 | 0.00 | 0.07 | 0.07 | 88 | 1010.2 |
| 20260903133705 | 75 | 52 | 0.0 | 0.0 | 0.00 | 0.07 | 0.07 | 89 | 1010.2 |
| 20260903133610 | 75 | 54 | 0.0 | 0.0 | 0.00 | 0.07 | 0.07 | 89 | 1010.3 |
| 20260903133605 | 75 | 54 | 0.0 | 0.0 | 0.00 | 0.07 | 0.07 | 89 | 1010.3 |
| 20260903133304 | 75 | 109 | 0.0 | 0.0 | 0.00 | 0.07 | 0.07 | 89 | 1010.2 |
| 20260903133104 | 74 | 244 | 0.0 | 0.0 | 0.00 | 0.07 | 0.07 | 89 | 1010.2 |
| 20260903132903 | 74 | 247 | 0.0 | 0.0 | 0.00 | 0.07 | 0.07 | 90 | 1010.2 |
| 20260903132656 | 74 | 245 | 0.0 | 0.0 | 0.00 | 0.07 | 0.07 | 90 | 1010.2 |
| 20260903132611 | 74 | 245 | 0.0 | 0.0 | 0.00 | 0.07 | 0.07 | 90 | 1010.2 |
| 20260903132557 | 74 | 245 | 0.0 | 0.0 | 0.00 | 0.07 | 0.07 | 90 | 1010.2 |
| 20260903132411 | 74 | 245 | 0.0 | 0.0 | 0.00 | 0.07 | 0.07 | 90 | 1010.2 |
| 20260903132407 | 74 | 244 | 0.0 | 0.0 | 0.00 | 0.07 | 0.07 | 90 | 1010.2 |
| 20260903132349 | 74 | 244 | 0.0 | 0.0 | 0.00 | 0.07 | 0.07 | 90 | 1010.1 |
| 20260903131852 | 73 | 245 | 0.0 | 0.0 | 0.00 | 0.07 | 0.07 | 90 | 1010.2 |
| 20260903131651 | 73 | 245 | 0.0 | 0.0 | 0.00 | 0.07 | 0.07 | 90 | 1010.2 |
| 20260903131603 | 73 | 245 | 0.0 | 0.0 | 0.00 | 0.07 | 0.07 | 90 | 1010.2 |
| 20260903131451 | 73 | 245 | 0.0 | 0.0 | 0.00 | 0.07 | 0.07 | 90 | 1010.2 |
| 20260903131408 | 73 | 312 | 0.0 | 0.0 | 0.00 | 0.07 | 0.07 | 90 | 1010.2 |
| 20260903131404 | 73 | 314 | 0.0 | 0.0 | 0.00 | 0.07 | 0.07 | 90 | 1010.1 |
| 20260903131344 | 73 | 245 | 0.0 | 0.0 | 0.00 | 0.07 | 0.07 | 90 | 1010.2 |
| 20260903130850 | 73 | 162 | 0.0 | 0.0 | 0.00 | 0.07 | 0.07 | 90 | 1010.1 |
| 20260903130746 | 73 | 176 | 0.0 | 0.0 | 0.00 | 0.07 | 0.07 | 90 | 1010.1 |
| 20260903130604 | 73 | 178 | 0.0 | 0.0 | 0.00 | 0.07 | 0.07 | 90 | 1010.1 |
| 20260903130450 | 73 | 179 | 0.0 | 0.0 | 0.00 | 0.07 | 0.07 | 90 | 1010.2 |
| 20260903130426 | 73 | 183 | 0.0 | 0.0 | 0.00 | 0.07 | 0.07 | 90 | 1010.0 |
| 20260903130403 | 73 | 179 | 0.0 | 0.0 | 0.00 | 0.07 | 0.07 | 90 | 1010.1 |
| 20260903130047 | 73 | 180 | 0.0 | 0.0 | 0.00 | 0.07 | 0.07 | 90 | 1010.0 |
| 20260903125941 | 73 | 168 | 0.0 | 0.0 | 0.00 | 0.07 | 0.07 | 90 | 1009.9 |
| 20260903125644 | 72 | 154 | 0.0 | 0.0 | 0.00 | 0.07 | 0.07 | 91 | 1009.9 |
| 20260903125607 | 72 | 164 | 0.0 | 0.0 | 0.00 | 0.07 | 0.07 | 91 | 1009.9 |
| 20260903125541 | 73 | 171 | 0.0 | 0.0 | 0.00 | 0.07 | 0.07 | 91 | 1010.0 |
| 20260903125244 | 73 | 172 | 0.0 | 0.0 | 0.00 | 0.07 | 0.07 | 91 | 1010.0 |
| 20260903125103 | 73 | 175 | 0.0 | 0.0 | 0.00 | 0.07 | 0.07 | 91 | 1009.9 |
| 20260903125047 | 72 | 175 | 0.0 | 0.0 | 0.00 | 0.07 | 0.07 | 91 | 1010.0 |
| 20260903124839 | 73 | 219 | 0.0 | 0.0 | 0.00 | 0.07 | 0.07 | 91 | 1009.9 |
| 20260903124635 | 72 | 113 | 0.0 | 0.0 | 0.00 | 0.07 | 0.07 | 91 | 1010.0 |
| 20260903124607 | 73 | 161 | 0.0 | 0.0 | 0.00 | 0.07 | 0.07 | 91 | 1010.0 |
| 20260903124533 | 72 | 164 | 0.0 | 0.0 | 0.00 | 0.07 | 0.07 | 91 | 1010.0 |
| 20260903124407 | 73 | 145 | 0.0 | 0.0 | 0.00 | 0.07 | 0.07 | 92 | 1009.9 |
| 20260903124403 | 73 | 145 | 0.0 | 0.0 | 0.00 | 0.07 | 0.07 | 92 | 1009.9 |
| 20260903124339 | 73 | 148 | 0.0 | 0.0 | 0.00 | 0.07 | 0.07 | 92 | 1010.0 |
| 20260903123831 | 72 | 151 | 0.0 | 0.0 | 0.00 | 0.07 | 0.07 | 92 | 1010.0 |
| 20260903123603 | 72 | 152 | 0.0 | 0.0 | 0.00 | 0.07 | 0.07 | 92 | 1010.0 |
| 20260903123424 | 72 | 144 | 0.0 | 0.0 | 0.00 | 0.07 | 0.07 | 92 | 1010.1 |
| 20260903123410 | 73 | 190 | 0.0 | 0.0 | 0.00 | 0.07 | 0.07 | 92 | 1009.9 |
| 20260903123405 | 73 | 195 | 0.0 | 0.0 | 0.00 | 0.07 | 0.07 | 92 | 1009.9 |
| 20260903123343 | 73 | 141 | 0.0 | 0.0 | 0.00 | 0.07 | 0.07 | 92 | 1009.9 |
| 20260903122823 | 73 | 155 | 0.0 | 0.0 | 0.00 | 0.07 | 0.07 | 92 | 1009.9 |
| 20260903122722 | 73 | 188 | 0.0 | 0.0 | 0.01 | 0.07 | 0.07 | 93 | 1009.6 |
| 20260903122603 | 73 | 188 | 0.0 | 0.0 | 0.01 | 0.07 | 0.07 | 93 | 1009.6 |
| 20260903122422 | 73 | 200 | 0.0 | 0.0 | 0.03 | 0.07 | 0.07 | 93 | 1009.3 |
| 20260903122405 | 73 | 233 | 0.0 | 0.0 | 0.07 | 0.07 | 0.07 | 93 | 1009.2 |
| 20260903122339 | 73 | 231 | 0.0 | 0.0 | 0.07 | 0.07 | 0.07 | 93 | 1009.2 |
| 20260903122022 | 73 | 230 | 0.0 | 0.0 | 0.07 | 0.07 | 0.07 | 93 | 1009.2 |
| 20260903121822 | 73 | 347 | 0.0 | 0.0 | 0.07 | 0.07 | 0.07 | 93 | 1009.1 |
| 20260903121621 | 73 | 141 | 0.0 | 0.0 | 0.07 | 0.07 | 0.07 | 92 | 1009.2 |
| 20260903121601 | 73 | 158 | 0.0 | 0.0 | 0.07 | 0.07 | 0.07 | 92 | 1009.2 |
| 20260903121521 | 73 | 32 | 0.0 | 0.0 | 0.07 | 0.07 | 0.07 | 92 | 1009.3 |
| 20260903121223 | 73 | 168 | 0.0 | 0.0 | 0.07 | 0.07 | 0.07 | 92 | 1009.4 |
| 20260903121103 | 73 | 168 | 0.0 | 0.0 | 0.07 | 0.07 | 0.07 | 92 | 1009.4 |
| 20260903121004 | 73 | 168 | 0.0 | 0.0 | 0.07 | 0.07 | 0.07 | 92 | 1009.5 |
| 20260903120902 | 73 | 164 | 0.0 | 0.0 | 0.07 | 0.07 | 0.07 | 92 | 1009.7 |
| 20260903120601 | 73 | 44 | 0.0 | 0.0 | 0.07 | 0.07 | 0.07 | 92 | 1009.7 |
| 20260903120437 | 74 | 158 | 0.0 | 0.0 | 0.07 | 0.07 | 0.07 | 92 | 1009.6 |
| 20260903120431 | 74 | 164 | 0.0 | 0.0 | 0.07 | 0.00 | 0.07 | 92 | 1009.6 |
| 20260903120425 | 73 | 32 | 0.0 | 0.0 | 0.07 | 0.07 | 0.07 | 92 | 1009.5 |
| 20260903120352 | 74 | 158 | 0.0 | 0.0 | 0.07 | 0.07 | 0.07 | 92 | 1009.5 |
| 20260903115802 | 74 | 124 | 0.0 | 0.0 | 0.07 | 0.00 | 0.07 | 92 | 1009.7 |
| 20260903115610 | 74 | 155 | 0.0 | 0.0 | 0.00 | 0.00 | 0.07 | 92 | 1009.8 |
| 20260903115606 | 74 | 154 | 0.0 | 0.0 | 0.00 | 0.00 | 0.07 | 92 | 1009.8 |
| 20260903115508 | 74 | 155 | 0.0 | 0.0 | 0.00 | 0.00 | 0.07 | 92 | 1009.7 |
| 20260903115409 | 74 | 173 | 0.0 | 0.0 | 0.00 | 0.00 | 0.07 | 92 | 1009.7 |
| 20260903115337 | 74 | 173 | 0.0 | 0.0 | 0.00 | 0.00 | 0.07 | 92 | 1009.7 |
| 20260903115004 | 74 | 179 | 0.0 | 0.0 | 0.00 | 0.00 | 0.07 | 93 | 1009.7 |
| 20260903114804 | 74 | 180 | 0.0 | 0.0 | 0.00 | 0.00 | 0.07 | 93 | 1009.8 |
| 20260903114708 | 74 | 183 | 0.0 | 0.0 | 0.00 | 0.00 | 0.07 | 93 | 1010.0 |
| 20260903114606 | 74 | 185 | 0.0 | 0.0 | 0.00 | 0.00 | 0.07 | 93 | 1010.0 |
| 20260903114411 | 74 | 168 | 0.0 | 0.0 | 0.00 | 0.00 | 0.07 | 92 | 1010.0 |
| 20260903114405 | 74 | 180 | 0.0 | 0.0 | 0.00 | 0.00 | 0.07 | 92 | 1010.1 |
| 20260903114339 | 74 | 196 | 0.0 | 0.0 | 0.00 | 0.00 | 0.07 | 92 | 1010.0 |
| 20260903114005 | 74 | 168 | 0.0 | 0.0 | 0.00 | 0.00 | 0.07 | 92 | 1010.1 |
| 20260903113807 | 74 | 103 | 0.0 | 0.0 | 0.00 | 0.00 | 0.07 | 92 | 1010.1 |
| 20260903113615 | 74 | 171 | 0.0 | 0.0 | 0.00 | 0.00 | 0.07 | 92 | 1010.6 |
| 20260903113610 | 74 | 159 | 0.0 | 0.0 | 0.00 | 0.00 | 0.07 | 92 | 1010.4 |
| 20260903113604 | 74 | 159 | 0.0 | 0.0 | 0.00 | 0.00 | 0.07 | 92 | 1010.4 |
| 20260903113205 | 75 | 203 | 0.0 | 0.0 | 0.00 | 0.00 | 0.07 | 92 | 1010.4 |
| 20260903113103 | 75 | 227 | 0.0 | 0.0 | 0.00 | 0.00 | 0.07 | 92 | 1010.5 |
| 20260903113007 | 75 | 224 | 0.0 | 0.0 | 0.00 | 0.00 | 0.07 | 92 | 1010.5 |
| 20260903112803 | 75 | 186 | 0.0 | 0.0 | 0.00 | 0.00 | 0.06 | 92 | 1010.5 |
| 20260903112609 | 75 | 189 | 0.0 | 0.0 | 0.00 | 0.00 | 0.05 | 92 | 1010.7 |
| 20260903112604 | 75 | 189 | 0.0 | 0.0 | 0.00 | 0.00 | 0.05 | 92 | 1010.7 |
| 20260903112404 | 75 | 196 | 0.0 | 0.0 | 0.00 | 0.00 | 0.00 | 92 | 1010.7 |
| 20260903112209 | 75 | 197 | 0.0 | 3.0 | 0.00 | 0.00 | 0.00 | 93 | 1010.7 |
| 20260903112205 | 75 | 209 | 0.0 | 0.0 | 0.00 | 0.00 | 0.00 | 93 | 1010.7 |
| 20260903112105 | 75 | 209 | 0.0 | 0.0 | 0.00 | 0.00 | 0.00 | 93 | 1010.7 |
| 20260903111804 | 74 | 168 | 0.0 | 5.0 | 0.00 | 0.00 | 0.00 | 93 | 1010.6 |
| 20260903111605 | 74 | 207 | 0.0 | 5.0 | 0.00 | 0.00 | 0.00 | 94 | 1010.7 |
| 20260903111407 | 74 | 188 | 0.0 | 5.0 | 0.00 | 0.00 | 0.00 | 94 | 1010.6 |
| 20260903111205 | 74 | 169 | 0.0 | 5.0 | 0.00 | 0.00 | 0.00 | 94 | 1010.6 |
| 20260903111103 | 74 | 192 | 0.0 | 5.0 | 0.00 | 0.00 | 0.00 | 94 | 1010.6 |
| 20260903111003 | 74 | 192 | 0.0 | 5.0 | 0.00 | 0.00 | 0.00 | 94 | 1010.6 |
| 20260903110811 | 74 | 193 | 0.0 | 5.0 | 0.00 | 0.00 | 0.00 | 94 | 1010.3 |
| 20260903110805 | 74 | 193 | 0.0 | 5.0 | 0.00 | 0.00 | 0.00 | 94 | 1010.5 |
| 20260903110607 | 74 | 193 | 0.0 | 5.0 | 0.00 | 0.00 | 0.00 | 94 | 1010.3 |
| 20260903110403 | 74 | 207 | 0.0 | 5.0 | 0.00 | 0.00 | 0.00 | 94 | 1010.4 |
| 20260903110238 | 74 | 175 | 0.0 | 3.0 | 0.00 | 0.00 | 0.00 | 94 | 1010.3 |
| 20260903110203 | 74 | 220 | 0.0 | 3.0 | 0.00 | 0.00 | 0.00 | 94 | 1010.4 |
| 20260903110116 | 74 | 175 | 0.0 | 3.0 | 0.00 | 0.00 | 0.00 | 94 | 1010.3 |
| 20260903105803 | 74 | 173 | 0.0 | 2.0 | 0.00 | 0.00 | 0.00 | 94 | 1010.3 |
| 20260903105619 | 0 | 0.0 | 0.0 | 0.00 | 0.00 | 0.00 | 1010.3 | ||
| 20260903105334 | 0 | 0.0 | 0.0 | 0.00 | 0.00 | 0.00 | |||
| 20260903105114 | 0 | 0.0 | 0.0 | 0.00 | 0.00 | 0.00 | |||
| 20260903104907 | 0 | 0.0 | 0.0 | 0.00 | 0.00 | 0.00 | |||
| 20260903104707 | 0 | 0.0 | 0.0 | 0.00 | 0.00 | 0.00 | |||
| 20260903104639 | 0 | 0.0 | 0.0 | 0.00 | 0.00 | 0.00 | |||
| 20260903104439 | 0 | 0.0 | 0.0 | 0.00 | 0.00 | 0.00 | |||
| 20260903104236 | 0 | 0.0 | 0.0 | 0.00 | 0.00 | 0.00 | 1010.3 | ||
| 20260903104223 | 0 | 0.0 | 0.0 | 0.00 | 0.01 | 0.00 | 1010.3 | ||
| 20260903104159 | 0 | 0.0 | 0.0 | 0.00 | 0.00 | 0.00 | 1010.3 | ||
| 20260903103835 | 0 | 0.0 | 0.0 | 0.00 | 0.01 | 0.00 | 1010.3 | ||
| 20260903103608 | 74 | 165 | 0.0 | 2.0 | 0.00 | 0.02 | 0.00 | 95 | 1010.3 |
| 20260903103411 | 74 | 165 | 0.0 | 4.0 | 0.00 | 0.05 | 0.00 | 95 | 1010.3 |
| 20260903103246 | 74 | 165 | 0.0 | 6.0 | 0.00 | 0.14 | 0.00 | 95 | 1010.4 |
| 20260903103212 | 74 | 165 | 0.0 | 6.0 | 0.00 | 0.14 | 0.00 | 95 | 1010.5 |
| 20260903103124 | 74 | 165 | 0.0 | 6.0 | 0.00 | 0.14 | 0.00 | 95 | 1010.5 |
| 20260903102745 | 74 | 165 | 0.0 | 6.0 | 0.00 | 0.14 | 0.00 | 95 | 1010.4 |
| 20260903102543 | 74 | 169 | 0.0 | 6.0 | 0.00 | 0.14 | 0.00 | 95 | 1010.5 |
| 20260903102344 | 73 | 193 | 0.0 | 6.0 | 0.00 | 0.14 | 0.00 | 95 | 1010.5 |
| 20260903102204 | 73 | 171 | 0.0 | 5.0 | 0.00 | 0.14 | 0.00 | 95 | 1010.6 |
| 20260903102156 | 73 | 161 | 0.0 | 6.0 | 0.00 | 0.14 | 0.00 | 95 | 1010.5 |
| 20260903102113 | 73 | 176 | 0.0 | 5.0 | 0.00 | 0.14 | 0.00 | 95 | 1010.6 |
| 20260903101741 | 73 | 182 | 0.0 | 5.0 | 0.00 | 0.14 | 0.00 | 95 | 1010.4 |
| 20260903101539 | 73 | 175 | 0.0 | 4.0 | 0.00 | 0.14 | 0.00 | 95 | 1010.2 |
| 20260903101349 | 73 | 145 | 0.0 | 3.0 | 0.00 | 0.14 | 0.00 | 96 | 1010.2 |
| 20260903101340 | 73 | 141 | 0.0 | 3.0 | 0.00 | 0.14 | 0.00 | 96 | 1010.2 |
| 20260903101251 | 73 | 175 | 0.0 | 3.0 | 0.00 | 0.14 | 0.00 | 96 | 1010.0 |
| 20260903101201 | 73 | 195 | 0.0 | 3.0 | 0.00 | 0.14 | 0.00 | 96 | 1010.0 |
| 20260903101116 | 73 | 192 | 0.0 | 3.0 | 0.00 | 0.14 | 0.00 | 96 | 1010.0 |
| 20260903100837 | 73 | 197 | 0.0 | 3.0 | 0.00 | 0.14 | 0.00 | 96 | 1010.1 |
| 20260903100536 | 73 | 147 | 0.0 | 2.0 | 0.00 | 0.14 | 0.00 | 96 | 1010.2 |
| 20260903100347 | 73 | 149 | 0.0 | 2.0 | 0.00 | 0.14 | 0.00 | 96 | 1010.2 |
| 20260903100337 | 73 | 144 | 0.0 | 2.0 | 0.00 | 0.14 | 0.00 | 96 | 1010.1 |
| 20260903100139 | 73 | 142 | 0.0 | 1.0 | 0.00 | 0.14 | 0.00 | 96 | 1010.0 |
| 20260903095937 | 73 | 145 | 0.0 | 1.0 | 0.00 | 0.14 | 0.00 | 96 | 1010.2 |
| 20260903095909 | 73 | 144 | 0.0 | 2.0 | 0.00 | 0.14 | 0.00 | 96 | 1010.3 |
| 20260903095854 | 73 | 144 | 0.0 | 1.0 | 0.00 | 0.14 | 0.00 | 96 | 1010.2 |
| 20260903095711 | 73 | 183 | 0.0 | 3.0 | 0.00 | 0.14 | 0.00 | 96 | 1010.3 |
| 20260903095617 | 73 | 183 | 0.0 | 2.0 | 0.00 | 0.14 | 0.00 | 96 | 1010.2 |
| 20260903095122 | 73 | 182 | 0.0 | 3.0 | 0.00 | 0.14 | 0.00 | 96 | 1010.5 |
| 20260903094907 | 73 | 183 | 0.0 | 4.0 | 0.00 | 0.14 | 0.00 | 96 | 1010.4 |
| 20260903094838 | 73 | 185 | 0.0 | 4.0 | 0.00 | 0.14 | 0.00 | 96 | 1010.4 |
| 20260903094707 | 73 | 183 | 0.0 | 4.0 | 0.00 | 0.14 | 0.00 | 96 | 1010.4 |
| 20260903094651 | 73 | 183 | 0.0 | 4.0 | 0.00 | 0.14 | 0.00 | 96 | 1010.6 |
| 20260903094646 | 73 | 185 | 0.0 | 4.0 | 0.00 | 0.14 | 0.00 | 96 | 1010.6 |
| 20260903094618 | 73 | 185 | 0.0 | 4.0 | 0.00 | 0.14 | 0.00 | 96 | 1010.5 |
| 20260903094231 | 72 | 185 | 0.0 | 4.0 | 0.00 | 0.14 | 0.00 | 96 | 1010.5 |
| 20260903094139 | 72 | 193 | 0.0 | 3.0 | 0.00 | 0.14 | 0.00 | 96 | 1010.6 |
| 20260903093839 | 72 | 190 | 0.0 | 3.0 | 0.00 | 0.14 | 0.00 | 96 | 1010.6 |
| 20260903093707 | 72 | 171 | 0.0 | 3.0 | 0.00 | 0.14 | 0.00 | 96 | 1010.6 |
| 20260903093646 | 72 | 147 | 0.0 | 2.0 | 0.00 | 0.14 | 0.00 | 96 | 1010.4 |
| 20260903093611 | 72 | 147 | 0.0 | 2.0 | 0.00 | 0.14 | 0.00 | 96 | 1010.5 |
| 20260903093258 | 72 | 148 | 0.0 | 2.0 | 0.00 | 0.14 | 0.00 | 96 | 1010.4 |
| 20260903093101 | 72 | 123 | 0.0 | 2.0 | 0.00 | 0.14 | 0.00 | 96 | 1010.4 |
| 20260903092855 | 72 | 68 | 0.0 | 2.0 | 0.00 | 0.14 | 0.00 | 96 | 1010.3 |
| 20260903092842 | 72 | 66 | 0.0 | 2.0 | 0.00 | 0.14 | 0.00 | 96 | 1010.3 |
| 20260903092658 | 72 | 68 | 0.0 | 2.0 | 0.00 | 0.14 | 0.00 | 96 | 1010.3 |
| 20260903092652 | 72 | 68 | 0.0 | 2.0 | 0.00 | 0.14 | 0.00 | 96 | 1010.2 |
| 20260903092341 | 72 | 69 | 0.0 | 2.0 | 0.00 | 0.14 | 0.00 | 96 | 1010.2 |
| 20260903092249 | 72 | 68 | 0.0 | 2.0 | 0.00 | 0.14 | 0.00 | 97 | 1010.2 |
| 20260903092052 | 72 | 68 | 0.0 | 1.0 | 0.00 | 0.14 | 0.00 | 97 | 1010.3 |
| 20260903091850 | 72 | 68 | 0.0 | 1.0 | 0.00 | 0.14 | 0.00 | 97 | 1010.2 |
| 20260903091838 | 72 | 69 | 0.0 | 1.0 | 0.00 | 0.14 | 0.00 | 97 | 1010.2 |
| 20260903091650 | 72 | 69 | 0.0 | 1.0 | 0.00 | 0.14 | 0.00 | 97 | 1010.3 |
| 20260903091448 | 72 | 68 | 0.0 | 1.0 | 0.00 | 0.14 | 0.00 | 97 | 1010.2 |
| 20260903091348 | 72 | 69 | 0.0 | 1.0 | 0.00 | 0.14 | 0.00 | 97 | 1010.2 |
| 20260903091252 | 72 | 66 | 0.0 | 1.0 | 0.00 | 0.14 | 0.00 | 96 | 1010.2 |
| 20260903091246 | 72 | 68 | 0.0 | 1.0 | 0.00 | 0.14 | 0.00 | 96 | 1010.2 |
| 20260903090848 | 72 | 66 | 0.0 | 1.0 | 0.00 | 0.14 | 0.00 | 96 | 1010.0 |
| 20260903090834 | 72 | 68 | 0.0 | 1.0 | 0.00 | 0.14 | 0.00 | 96 | 1010.0 |
| 20260903090644 | 72 | 66 | 0.0 | 1.0 | 0.00 | 0.14 | 0.00 | 96 | 1010.0 |
| 20260903090443 | 72 | 65 | 0.0 | 1.0 | 0.00 | 0.14 | 0.00 | 96 | 1010.0 |
| 20260903090334 | 72 | 63 | 0.0 | 2.0 | 0.00 | 0.14 | 0.00 | 96 | 1009.9 |
| 20260903090242 | 72 | 63 | 0.0 | 2.0 | 0.00 | 0.14 | 0.00 | 96 | 1009.9 |
| 20260903090046 | 72 | 63 | 0.0 | 2.0 | 0.00 | 0.14 | 0.00 | 96 | 1009.9 |
| 20260903085834 | 72 | 63 | 0.0 | 2.0 | 0.00 | 0.14 | 0.00 | 96 | 1009.9 |
| 20260903085746 | 72 | 62 | 0.0 | 2.0 | 0.00 | 0.14 | 0.00 | 96 | 1009.9 |
| 20260903085440 | 72 | 63 | 0.0 | 2.0 | 0.00 | 0.14 | 0.00 | 96 | 1010.0 |
| 20260903085334 | 72 | 152 | 0.0 | 0.0 | 0.00 | 0.14 | 0.00 | 96 | 1010.1 |
| 20260903085240 | 72 | 154 | 0.0 | 0.0 | 0.00 | 0.14 | 0.00 | 97 | 1010.1 |
| 20260903085042 | 72 | 152 | 0.0 | 0.0 | 0.00 | 0.14 | 0.00 | 97 | 1010.0 |
| 20260903084833 | 72 | 152 | 0.0 | 0.0 | 0.00 | 0.14 | 0.00 | 96 | 1010.1 |
| 20260903084743 | 72 | 151 | 0.0 | 0.0 | 0.00 | 0.14 | 0.00 | 96 | 1010.0 |
| 20260903084438 | 72 | 152 | 0.0 | 0.0 | 0.00 | 0.14 | 0.00 | 96 | 1009.9 |
| 20260903084344 | 72 | 152 | 0.0 | 0.0 | 0.00 | 0.14 | 0.00 | 96 | 1009.9 |
| 20260903084332 | 72 | 152 | 0.0 | 0.0 | 0.00 | 0.14 | 0.00 | 96 | 1009.9 |
| 20260903084213 | 72 | 152 | 0.0 | 0.0 | 0.00 | 0.14 | 0.00 | 96 | 1010.0 |
| 20260903084148 | 72 | 152 | 0.0 | 0.0 | 0.00 | 0.14 | 0.00 | 96 | 1009.9 |
| 20260903084102 | 72 | 154 | 0.0 | 0.0 | 0.00 | 0.14 | 0.00 | 96 | 1010.0 |
| 20260903083637 | 72 | 152 | 0.0 | 0.0 | 0.00 | 0.14 | 0.00 | 96 | 1010.0 |
| 20260903083440 | 72 | 151 | 0.0 | 0.0 | 0.00 | 0.14 | 0.00 | 96 | 1010.0 |
| 20260903083345 | 72 | 152 | 0.0 | 0.0 | 0.00 | 0.14 | 0.00 | 96 | 1010.1 |
| 20260903083330 | 72 | 152 | 0.0 | 0.0 | 0.00 | 0.14 | 0.00 | 96 | 1010.1 |
| 20260903083210 | 72 | 154 | 0.0 | 2.0 | 0.00 | 0.14 | 0.00 | 96 | 1010.0 |
| 20260903083206 | 72 | 152 | 0.0 | 2.0 | 0.00 | 0.14 | 0.00 | 96 | 1010.0 |
| 20260903083146 | 72 | 152 | 0.0 | 2.0 | 0.00 | 0.14 | 0.00 | 96 | 1010.0 |
| 20260903082632 | 72 | 154 | 0.0 | 2.0 | 0.00 | 0.14 | 0.00 | 96 | 1010.0 |
| 20260903082432 | 72 | 154 | 0.0 | 2.0 | 0.00 | 0.14 | 0.00 | 96 | 1009.9 |
| 20260903082320 | 72 | 152 | 0.0 | 2.0 | 0.00 | 0.14 | 0.00 | 96 | 1010.0 |
| 20260903082230 | 72 | 152 | 0.0 | 2.0 | 0.00 | 0.14 | 0.00 | 96 | 1010.0 |
| 20260903082141 | 72 | 152 | 0.0 | 2.0 | 0.00 | 0.14 | 0.00 | 96 | 1010.0 |
| 20260903082121 | 72 | 152 | 0.0 | 2.0 | 0.00 | 0.14 | 0.00 | 96 | 1010.0 |
| 20260903082042 | 72 | 154 | 0.0 | 2.0 | 0.00 | 0.14 | 0.00 | 96 | 1010.0 |
| 20260903081627 | 72 | 152 | 0.0 | 2.0 | 0.00 | 0.14 | 0.00 | 96 | 1010.0 |
| 20260903081425 | 72 | 152 | 0.0 | 1.0 | 0.00 | 0.14 | 0.00 | 96 | 1010.0 |
| 20260903081317 | 72 | 152 | 0.0 | 1.0 | 0.00 | 0.14 | 0.00 | 96 | 1010.0 |
| 20260903081228 | 72 | 152 | 0.0 | 1.0 | 0.00 | 0.14 | 0.00 | 96 | 1010.1 |
| 20260903081222 | 72 | 152 | 0.0 | 1.0 | 0.00 | 0.14 | 0.00 | 96 | 1010.0 |
| 20260903081140 | 72 | 152 | 0.0 | 1.0 | 0.00 | 0.14 | 0.00 | 96 | 1010.2 |
| 20260903081034 | 72 | 152 | 0.0 | 1.0 | 0.00 | 0.14 | 0.00 | 96 | 1010.2 |
| 20260903080716 | 72 | 152 | 0.0 | 1.0 | 0.00 | 0.14 | 0.00 | 96 | 1010.2 |
| 20260903080420 | 72 | 152 | 0.0 | 1.0 | 0.00 | 0.14 | 0.00 | 96 | 1010.3 |
| 20260903080316 | 72 | 152 | 0.0 | 1.0 | 0.00 | 0.14 | 0.00 | 96 | 1010.2 |
| 20260903080213 | 72 | 152 | 0.0 | 1.0 | 0.00 | 0.14 | 0.00 | 96 | 1010.2 |
| 20260903080021 | 72 | 151 | 0.0 | 1.0 | 0.00 | 0.14 | 0.00 | 96 | 1010.2 |
| 20260903075821 | 72 | 152 | 0.0 | 1.0 | 0.00 | 0.14 | 0.00 | 96 | 1010.2 |
| 20260903075815 | 72 | 154 | 0.0 | 1.0 | 0.00 | 0.14 | 0.00 | 96 | 1010.2 |
| 20260903075715 | 72 | 152 | 0.0 | 1.0 | 0.00 | 0.14 | 0.00 | 96 | 1010.2 |
| 20260903075413 | 72 | 154 | 0.0 | 0.0 | 0.00 | 0.14 | 0.00 | 96 | 1010.3 |
| 20260903075325 | 72 | 152 | 0.0 | 0.0 | 0.00 | 0.14 | 0.00 | 96 | 1010.3 |
| 20260903075315 | 72 | 152 | 0.0 | 0.0 | 0.00 | 0.14 | 0.00 | 96 | 1010.3 |
| 20260903075032 | 72 | 152 | 0.0 | 0.0 | 0.00 | 0.14 | 0.00 | 96 | 1010.4 |
| 20260903074814 | 72 | 154 | 0.0 | 0.0 | 0.00 | 0.14 | 0.00 | 96 | 1010.3 |
| 20260903074806 | 72 | 152 | 0.0 | 0.0 | 0.00 | 0.14 | 0.00 | 96 | 1010.3 |
| 20260903074604 | 72 | 152 | 0.0 | 0.0 | 0.00 | 0.14 | 0.00 | 96 | 1010.3 |
| 20260903074351 | 72 | 152 | 0.0 | 0.0 | 0.00 | 0.14 | 0.00 | 96 | 1010.1 |
| 20260903074313 | 72 | 154 | 0.0 | 0.0 | 0.00 | 0.14 | 0.00 | 96 | 1010.2 |
| 20260903074246 | 72 | 152 | 0.0 | 0.0 | 0.00 | 0.14 | 0.00 | 96 | 1010.2 |
| 20260903073943 | 72 | 152 | 0.0 | 0.0 | 0.00 | 0.14 | 0.00 | 96 | 1010.2 |
| 20260903073845 | 72 | 152 | 0.0 | 0.0 | 0.00 | 0.14 | 0.00 | 96 | 1010.3 |
| 20260903073811 | 72 | 152 | 0.0 | 0.0 | 0.00 | 0.14 | 0.00 | 96 | 1010.3 |
| 20260903073641 | 72 | 152 | 0.0 | 0.0 | 0.00 | 0.14 | 0.00 | 96 | 1010.3 |
| 20260903073342 | 72 | 154 | 0.0 | 0.0 | 0.00 | 0.15 | 0.00 | 96 | 1010.3 |
| 20260903073312 | 72 | 152 | 0.0 | 0.0 | 0.00 | 0.15 | 0.00 | 96 | 1010.3 |
| 20260903073141 | 72 | 154 | 0.0 | 0.0 | 0.00 | 0.15 | 0.00 | 96 | 1010.3 |
| 20260903072941 | 72 | 151 | 0.0 | 0.0 | 0.00 | 0.15 | 0.00 | 96 | 1010.3 |
| 20260903072808 | 72 | 152 | 0.0 | 0.0 | 0.00 | 0.15 | 0.00 | 96 | 1010.4 |
| 20260903072741 | 72 | 152 | 0.0 | 0.0 | 0.00 | 0.15 | 0.00 | 96 | 1010.4 |
| 20260903072546 | 72 | 152 | 0.0 | 0.0 | 0.00 | 0.15 | 0.00 | 96 | 1010.5 |
| 20260903072540 | 72 | 152 | 0.0 | 0.0 | 0.00 | 0.15 | 0.00 | 96 | 1010.4 |
| 20260903072309 | 72 | 152 | 0.0 | 0.0 | 0.00 | 0.15 | 0.00 | 96 | 1010.5 |
| 20260903072139 | 72 | 152 | 0.0 | 0.0 | 0.00 | 0.15 | 0.00 | 96 | 1010.5 |
| 20260903072134 | 72 | 152 | 0.0 | 0.0 | 0.00 | 0.16 | 0.00 | 96 | 1010.5 |
| 20260903072043 | 72 | 152 | 0.0 | 0.0 | 0.00 | 0.16 | 0.00 | 96 | 1010.5 |
| 20260903071739 | 72 | 154 | 0.0 | 0.0 | 0.00 | 0.16 | 0.00 | 96 | 1010.5 |
| 20260903071539 | 72 | 152 | 0.0 | 0.0 | 0.00 | 0.16 | 0.00 | 96 | 1010.5 |
| 20260903071343 | 72 | 152 | 0.0 | 1.0 | 0.00 | 0.16 | 0.00 | 96 | 1010.6 |
| 20260903071309 | 72 | 152 | 0.0 | 1.0 | 0.00 | 0.16 | 0.00 | 96 | 1010.5 |
| 20260903071242 | 72 | 152 | 0.0 | 1.0 | 0.00 | 0.17 | 0.00 | 96 | 1010.5 |
| 20260903071150 | 72 | 152 | 0.0 | 1.0 | 0.00 | 0.17 | 0.00 | 96 | 1010.5 |
| 20260903071102 | 72 | 152 | 0.0 | 1.0 | 0.00 | 0.17 | 0.00 | 96 | 1010.5 |
| 20260903070742 | 72 | 151 | 0.0 | 1.0 | 0.00 | 0.17 | 0.00 | 96 | 1010.5 |
| 20260903070542 | 72 | 152 | 0.0 | 1.0 | 0.00 | 0.17 | 0.00 | 96 | 1010.4 |
| 20260903070343 | 72 | 152 | 0.0 | 2.0 | 0.00 | 0.17 | 0.00 | 96 | 1010.5 |
| 20260903070306 | 72 | 154 | 0.0 | 2.0 | 0.00 | 0.17 | 0.00 | 96 | 1010.6 |
| 20260903070143 | 72 | 152 | 0.0 | 2.0 | 0.00 | 0.17 | 0.00 | 96 | 1010.5 |
| 20260903070106 | 72 | 152 | 0.0 | 2.0 | 0.00 | 0.17 | 0.00 | 96 | 1010.4 |
| 20260903070050 | 72 | 152 | 0.0 | 2.0 | 0.00 | 0.17 | 0.00 | 96 | 1010.5 |
| 20260903065744 | 72 | 152 | 0.0 | 2.0 | 0.00 | 0.17 | 0.00 | 96 | 1010.4 |
| 20260903065643 | 72 | 152 | 0.0 | 2.0 | 0.00 | 0.17 | 0.00 | 96 | 1010.4 |
| 20260903065342 | 72 | 152 | 0.0 | 0.0 | 0.00 | 0.17 | 0.00 | 96 | 1010.4 |
| 20260903065306 | 72 | 152 | 0.0 | 0.0 | 0.00 | 0.17 | 0.00 | 96 | 1010.4 |
| 20260903065148 | 72 | 152 | 0.0 | 0.0 | 0.00 | 0.17 | 0.00 | 95 | 1010.5 |
| 20260903065143 | 72 | 152 | 0.0 | 0.0 | 0.00 | 0.17 | 0.00 | 96 | 1010.5 |
| 20260903064804 | 72 | 152 | 0.0 | 0.0 | 0.00 | 0.17 | 0.00 | 95 | 1010.4 |
| 20260903064743 | 72 | 152 | 0.0 | 0.0 | 0.00 | 0.17 | 0.00 | 95 | 1010.4 |
| 20260903064542 | 72 | 152 | 0.0 | 0.0 | 0.00 | 0.17 | 0.00 | 95 | 1010.6 |
| 20260903064337 | 72 | 152 | 0.0 | 0.0 | 0.00 | 0.17 | 0.00 | 95 | 1010.6 |
| 20260903064304 | 72 | 154 | 0.0 | 0.0 | 0.00 | 0.17 | 0.00 | 95 | 1010.6 |
| 20260903064135 | 72 | 154 | 0.0 | 0.0 | 0.00 | 0.17 | 0.00 | 95 | 1010.7 |
| 20260903063939 | 72 | 152 | 0.0 | 0.0 | 0.00 | 0.17 | 0.00 | 95 | 1010.6 |
| 20260903063803 | 72 | 152 | 0.0 | 0.0 | 0.00 | 0.18 | 0.00 | 96 | 1010.7 |
| 20260903063744 | 72 | 152 | 0.0 | 0.0 | 0.00 | 0.18 | 0.00 | 96 | 1010.6 |
| 20260903063734 | 72 | 152 | 0.0 | 0.0 | 0.00 | 0.18 | 0.00 | 96 | 1010.6 |
| 20260903063333 | 72 | 151 | 0.0 | 0.0 | 0.00 | 0.18 | 0.00 | 96 | 1010.7 |
| 20260903063304 | 72 | 152 | 0.0 | 0.0 | 0.00 | 0.18 | 0.00 | 96 | 1010.7 |
| 20260903063135 | 72 | 152 | 0.0 | 0.0 | 0.00 | 0.18 | 0.00 | 96 | 1010.6 |
| 20260903062934 | 72 | 152 | 0.0 | 0.0 | 0.00 | 0.19 | 0.00 | 96 | 1010.7 |
| 20260903062814 | 72 | 152 | 0.0 | 0.0 | 0.00 | 0.19 | 0.00 | 96 | 1010.6 |
| 20260903062732 | 72 | 154 | 0.0 | 0.0 | 0.00 | 0.19 | 0.00 | 95 | 1010.7 |
| 20260903062532 | 72 | 152 | 0.0 | 0.0 | 0.00 | 0.19 | 0.00 | 95 | 1010.7 |
| 20260903062332 | 72 | 151 | 0.0 | 0.0 | 0.00 | 0.19 | 0.00 | 95 | 1010.6 |
| 20260903062326 | 72 | 154 | 0.0 | 0.0 | 0.00 | 0.19 | 0.00 | 95 | 1010.7 |
| 20260903062301 | 72 | 152 | 0.0 | 0.0 | 0.00 | 0.19 | 0.00 | 95 | 1010.6 |
| 20260903061933 | 72 | 152 | 0.0 | 0.0 | 0.00 | 0.19 | 0.00 | 95 | 1010.7 |
| 20260903061800 | 72 | 154 | 0.0 | 0.0 | 0.00 | 0.19 | 0.00 | 95 | 1010.7 |
| 20260903061733 | 72 | 151 | 0.0 | 0.0 | 0.00 | 0.19 | 0.00 | 95 | 1010.7 |
| 20260903061534 | 72 | 151 | 0.0 | 0.0 | 0.00 | 0.19 | 0.00 | 95 | 1010.7 |
| 20260903061423 | 72 | 152 | 0.0 | 0.0 | 0.00 | 0.19 | 0.00 | 95 | 1010.7 |
| 20260903061259 | 72 | 154 | 0.0 | 0.0 | 0.00 | 0.19 | 0.00 | 95 | 1010.7 |
| 20260903061121 | 72 | 152 | 0.0 | 0.0 | 0.00 | 0.19 | 0.00 | 95 | 1010.7 |
| 20260903060919 | 72 | 152 | 0.0 | 0.0 | 0.00 | 0.19 | 0.00 | 95 | 1010.7 |
| 20260903060759 | 72 | 152 | 0.0 | 0.0 | 0.00 | 0.19 | 0.00 | 95 | 1010.7 |
| 20260903060718 | 72 | 151 | 0.0 | 0.0 | 0.00 | 0.19 | 0.00 | 95 | 1010.7 |
| 20260903060513 | 72 | 152 | 0.0 | 0.0 | 0.00 | 0.19 | 0.00 | 95 | 1010.7 |
| 20260903060312 | 72 | 152 | 0.0 | 0.0 | 0.00 | 0.19 | 0.00 | 95 | 1010.7 |
| 20260903060258 | 72 | 152 | 0.0 | 0.0 | 0.00 | 0.19 | 0.00 | 95 | 1010.7 |
| 20260903060213 | 72 | 152 | 0.0 | 0.0 | 0.00 | 0.19 | 0.00 | 95 | 1010.6 |
| 20260903060011 | 72 | 152 | 0.0 | 0.0 | 0.00 | 0.19 | 0.00 | 95 | 1010.6 |
| 20260903055758 | 72 | 154 | 0.0 | 0.0 | 0.00 | 0.19 | 0.00 | 95 | 1010.7 |
| 20260903055710 | 72 | 154 | 0.0 | 0.0 | 0.00 | 0.19 | 0.00 | 95 | 1010.6 |
| 20260903055554 | 72 | 154 | 0.0 | 0.0 | 0.00 | 0.19 | 0.00 | 95 | 1010.7 |
| 20260903055541 | 72 | 151 | 0.0 | 0.0 | 0.00 | 0.19 | 0.00 | 95 | 1010.6 |
| 20260903055508 | 72 | 152 | 0.0 | 0.0 | 0.00 | 0.19 | 0.00 | 95 | 1010.7 |
| 20260903055109 | 72 | 151 | 0.0 | 0.0 | 0.00 | 0.19 | 0.00 | 95 | 1010.7 |
| 20260903054908 | 73 | 152 | 0.0 | 0.0 | 0.00 | 0.19 | 0.00 | 95 | 1010.7 |
| 20260903054809 | 73 | 152 | 0.0 | 0.0 | 0.00 | 0.19 | 0.00 | 95 | 1010.7 |
| 20260903054744 | 73 | 151 | 0.0 | 0.0 | 0.00 | 0.19 | 0.00 | 95 | 1010.7 |
| 20260903054641 | 73 | 152 | 0.0 | 0.0 | 0.00 | 0.19 | 0.00 | 95 | 1010.7 |
| 20260903054547 | 73 | 152 | 0.0 | 0.0 | 0.00 | 0.19 | 0.00 | 95 | 1010.7 |
| 20260903054503 | 73 | 154 | 0.0 | 0.0 | 0.00 | 0.19 | 0.00 | 95 | 1010.7 |
| 20260903054104 | 73 | 152 | 0.0 | 0.0 | 0.00 | 0.19 | 0.00 | 95 | 1010.7 |
| 20260903053905 | 73 | 152 | 0.0 | 0.0 | 0.00 | 0.19 | 0.00 | 95 | 1010.7 |
| 20260903053741 | 73 | 151 | 0.0 | 0.0 | 0.00 | 0.19 | 0.00 | 95 | 1010.7 |
| 20260903053656 | 73 | 154 | 0.0 | 0.0 | 0.00 | 0.19 | 0.00 | 95 | 1010.7 |
| 20260903053541 | 73 | 152 | 0.0 | 0.0 | 0.00 | 0.19 | 0.00 | 94 | 1010.8 |
| 20260903053529 | 73 | 152 | 0.0 | 0.0 | 0.00 | 0.19 | 0.00 | 95 | 1010.6 |
| 20260903053459 | 73 | 152 | 0.0 | 0.0 | 0.00 | 0.19 | 0.00 | 94 | 1010.8 |
| 20260903053055 | 73 | 152 | 0.0 | 0.0 | 0.00 | 0.19 | 0.00 | 95 | 1010.7 |
| 20260903052951 | 73 | 152 | 0.0 | 0.0 | 0.00 | 0.19 | 0.00 | 95 | 1010.7 |
| 20260903052741 | 73 | 152 | 0.0 | 0.0 | 0.00 | 0.19 | 0.00 | 95 | 1010.7 |
| 20260903052650 | 73 | 152 | 0.0 | 0.0 | 0.00 | 0.19 | 0.00 | 95 | 1010.7 |
| 20260903052544 | 73 | 152 | 0.0 | 0.0 | 0.00 | 0.19 | 0.00 | 95 | 1010.6 |
| 20260903052240 | 73 | 151 | 0.0 | 0.0 | 0.00 | 0.19 | 0.00 | 95 | 1010.6 |
| 20260903052044 | 73 | 152 | 0.0 | 0.0 | 0.00 | 0.19 | 0.00 | 95 | 1010.6 |
| 20260903051844 | 73 | 154 | 0.0 | 0.0 | 0.00 | 0.19 | 0.00 | 94 | 1010.6 |
| 20260903051739 | 73 | 154 | 0.0 | 0.0 | 0.00 | 0.19 | 0.00 | 94 | 1010.6 |
| 20260903051644 | 73 | 151 | 0.0 | 0.0 | 0.00 | 0.19 | 0.00 | 95 | 1010.6 |
| 20260903051624 | 73 | 152 | 0.0 | 0.0 | 0.00 | 0.19 | 0.00 | 94 | 1010.6 |
| 20260903051536 | 73 | 152 | 0.0 | 0.0 | 0.00 | 0.19 | 0.00 | 94 | 1010.6 |
| 20260903051457 | 73 | 152 | 0.0 | 0.0 | 0.00 | 0.19 | 0.00 | 94 | 1010.6 |
| 20260903051141 | 73 | 152 | 0.0 | 0.0 | 0.00 | 0.19 | 0.00 | 94 | 1010.6 |
| 20260903050844 | 73 | 152 | 0.0 | 0.0 | 0.00 | 0.19 | 0.00 | 94 | 1010.7 |
| 20260903050739 | 73 | 152 | 0.0 | 0.0 | 0.00 | 0.19 | 0.00 | 94 | 1010.7 |
| 20260903050645 | 73 | 154 | 0.0 | 0.0 | 0.00 | 0.19 | 0.00 | 94 | 1010.7 |
| 20260903050546 | 73 | 152 | 0.0 | 0.0 | 0.00 | 0.19 | 0.00 | 94 | 1010.7 |
| 20260903050531 | 73 | 152 | 0.0 | 0.0 | 0.00 | 0.19 | 0.00 | 94 | 1010.7 |
| 20260903050457 | 73 | 152 | 0.0 | 0.0 | 0.00 | 0.19 | 0.00 | 94 | 1010.7 |
| 20260903050142 | 73 | 152 | 0.0 | 0.0 | 0.00 | 0.19 | 0.00 | 94 | 1010.8 |
| 20260903045842 | 73 | 152 | 0.0 | 0.0 | 0.00 | 0.19 | 0.19 | 94 | 1010.7 |
| 20260903045752 | 73 | 152 | 0.0 | 0.0 | 0.00 | 0.19 | 0.19 | 94 | 1010.7 |
| 20260903045743 | 73 | 152 | 0.0 | 0.0 | 0.00 | 0.19 | 0.19 | 94 | 1010.7 |
| 20260903045546 | 73 | 152 | 0.0 | 0.0 | 0.00 | 0.19 | 0.19 | 94 | 1010.8 |
| 20260903045529 | 73 | 152 | 0.0 | 0.0 | 0.00 | 0.19 | 0.19 | 94 | 1010.7 |
| 20260903045455 | 73 | 152 | 0.0 | 0.0 | 0.00 | 0.19 | 0.19 | 94 | 1010.8 |
| 20260903045042 | 73 | 152 | 0.0 | 0.0 | 0.00 | 0.19 | 0.19 | 94 | 1010.8 |
| 20260903044941 | 73 | 152 | 0.0 | 0.0 | 0.00 | 0.19 | 0.19 | 94 | 1010.8 |
| 20260903044743 | 73 | 152 | 0.0 | 0.0 | 0.00 | 0.19 | 0.19 | 94 | 1010.8 |
| 20260903044642 | 73 | 152 | 0.0 | 0.0 | 0.00 | 0.19 | 0.19 | 94 | 1010.8 |
| 20260903044442 | 73 | 151 | 0.0 | 0.0 | 0.00 | 0.19 | 0.19 | 94 | 1010.8 |
| 20260903044244 | 73 | 152 | 0.0 | 0.0 | 0.00 | 0.19 | 0.19 | 93 | 1010.9 |
| 20260903044042 | 73 | 152 | 0.0 | 0.0 | 0.00 | 0.19 | 0.19 | 93 | 1010.7 |
| 20260903043941 | 73 | 154 | 0.0 | 0.0 | 0.00 | 0.19 | 0.19 | 93 | 1010.8 |
| 20260903043742 | 73 | 152 | 0.0 | 0.0 | 0.00 | 0.19 | 0.19 | 93 | 1010.8 |
| 20260903043642 | 73 | 154 | 0.0 | 0.0 | 0.00 | 0.19 | 0.19 | 93 | 1010.9 |
| 20260903043543 | 73 | 152 | 0.0 | 0.0 | 0.00 | 0.19 | 0.19 | 93 | 1010.9 |
| 20260903043242 | 73 | 152 | 0.0 | 0.0 | 0.00 | 0.19 | 0.19 | 93 | 1010.8 |
| 20260903043043 | 73 | 152 | 0.0 | 0.0 | 0.00 | 0.19 | 0.19 | 93 | 1010.9 |
| 20260903042842 | 73 | 152 | 0.0 | 0.0 | 0.00 | 0.19 | 0.19 | 93 | 1010.9 |
| 20260903042741 | 73 | 152 | 0.0 | 0.0 | 0.00 | 0.19 | 0.19 | 93 | 1010.9 |
| 20260903042642 | 73 | 152 | 0.0 | 0.0 | 0.00 | 0.19 | 0.19 | 93 | 1010.9 |
| 20260903042542 | 73 | 152 | 0.0 | 0.0 | 0.00 | 0.19 | 0.19 | 93 | 1010.9 |
| 20260903042242 | 73 | 152 | 0.0 | 0.0 | 0.00 | 0.19 | 0.19 | 93 | 1010.9 |
| 20260903042144 | 74 | 154 | 0.0 | 0.0 | 0.00 | 0.19 | 0.19 | 93 | 1010.9 |
| 20260903041842 | 74 | 154 | 0.0 | 0.0 | 0.00 | 0.19 | 0.19 | 93 | 1010.9 |
| 20260903041737 | 74 | 152 | 0.0 | 0.0 | 0.00 | 0.19 | 0.19 | 93 | 1011.0 |
| 20260903041642 | 74 | 152 | 0.0 | 0.0 | 0.00 | 0.19 | 0.19 | 93 | 1011.0 |
| 20260903041442 | 74 | 151 | 0.0 | 0.0 | 0.00 | 0.19 | 0.19 | 93 | 1011.0 |
| 20260903041238 | 74 | 152 | 0.0 | 0.0 | 0.00 | 0.19 | 0.19 | 93 | 1011.1 |
| 20260903041043 | 74 | 154 | 0.0 | 0.0 | 0.00 | 0.19 | 0.19 | 93 | 1011.0 |
| 20260903040842 | 74 | 154 | 0.0 | 0.0 | 0.00 | 0.19 | 0.19 | 93 | 1011.0 |
| 20260903040750 | 74 | 152 | 0.0 | 0.0 | 0.00 | 0.19 | 0.19 | 93 | 1011.0 |
| 20260903040738 | 74 | 154 | 0.0 | 0.0 | 0.00 | 0.19 | 0.19 | 93 | 1011.1 |
| 20260903040442 | 74 | 152 | 0.0 | 0.0 | 0.00 | 0.19 | 0.19 | 92 | 1011.1 |
| 20260903040250 | 74 | 152 | 0.0 | 0.0 | 0.00 | 0.19 | 0.19 | 92 | 1011.0 |
| 20260903040237 | 74 | 152 | 0.0 | 0.0 | 0.00 | 0.19 | 0.19 | 92 | 1011.1 |
| 20260903040144 | 74 | 151 | 0.0 | 0.0 | 0.00 | 0.19 | 0.19 | 92 | 1011.0 |
| 20260903035842 | 74 | 152 | 0.0 | 0.0 | 0.00 | 0.19 | 0.19 | 92 | 1011.0 |
| 20260903035734 | 74 | 152 | 0.0 | 0.0 | 0.00 | 0.19 | 0.19 | 92 | 1011.0 |
| 20260903035641 | 74 | 152 | 0.0 | 0.0 | 0.00 | 0.19 | 0.19 | 92 | 1011.0 |
| 20260903035442 | 74 | 151 | 0.0 | 0.0 | 0.00 | 0.19 | 0.19 | 92 | 1011.1 |
| 20260903035345 | 74 | 154 | 0.0 | 0.0 | 0.00 | 0.19 | 0.19 | 92 | 1010.9 |
| 20260903035235 | 74 | 152 | 0.0 | 0.0 | 0.00 | 0.19 | 0.19 | 92 | 1011.0 |
| 20260903035042 | 74 | 152 | 0.0 | 0.0 | 0.00 | 0.19 | 0.19 | 92 | 1011.0 |
| 20260903034843 | 74 | 152 | 0.0 | 0.0 | 0.00 | 0.19 | 0.19 | 92 | 1011.0 |
| 20260903034749 | 74 | 152 | 0.0 | 0.0 | 0.00 | 0.19 | 0.19 | 92 | 1011.0 |
| 20260903034731 | 74 | 152 | 0.0 | 0.0 | 0.00 | 0.19 | 0.19 | 92 | 1011.0 |
| 20260903034441 | 74 | 154 | 0.0 | 0.0 | 0.00 | 0.19 | 0.19 | 92 | 1011.1 |
| 20260903034245 | 74 | 152 | 0.0 | 0.0 | 0.00 | 0.19 | 0.19 | 92 | 1011.1 |
| 20260903034233 | 74 | 155 | 0.0 | 0.0 | 0.00 | 0.19 | 0.19 | 92 | 1011.1 |
| 20260903034042 | 74 | 152 | 0.0 | 0.0 | 0.00 | 0.19 | 0.19 | 92 | 1011.1 |
| 20260903033941 | 74 | 154 | 0.0 | 0.0 | 0.00 | 0.19 | 0.19 | 92 | 1011.0 |
| 20260903033728 | 74 | 152 | 0.0 | 0.0 | 0.00 | 0.19 | 0.19 | 91 | 1011.1 |
| 20260903033642 | 74 | 152 | 0.0 | 0.0 | 0.00 | 0.19 | 0.19 | 91 | 1011.1 |
| 20260903033444 | 74 | 152 | 0.0 | 0.0 | 0.00 | 0.19 | 0.19 | 91 | 1011.1 |
| 20260903033346 | 74 | 154 | 0.0 | 0.0 | 0.00 | 0.19 | 0.19 | 91 | 1011.0 |
| 20260903033229 | 75 | 154 | 0.0 | 0.0 | 0.00 | 0.19 | 0.19 | 91 | 1011.0 |
| 20260903033042 | 75 | 152 | 0.0 | 0.0 | 0.00 | 0.19 | 0.19 | 91 | 1011.0 |
| 20260903032844 | 75 | 154 | 0.0 | 0.0 | 0.00 | 0.19 | 0.19 | 91 | 1011.0 |
| 20260903032728 | 75 | 152 | 0.0 | 0.0 | 0.00 | 0.19 | 0.19 | 91 | 1011.1 |
| 20260903032641 | 75 | 154 | 0.0 | 0.0 | 0.00 | 0.19 | 0.19 | 91 | 1011.1 |
| 20260903032442 | 75 | 154 | 0.0 | 0.0 | 0.00 | 0.19 | 0.19 | 91 | 1011.1 |
| 20260903032243 | 75 | 154 | 0.0 | 0.0 | 0.00 | 0.19 | 0.19 | 91 | 1011.1 |
| 20260903032228 | 75 | 152 | 0.0 | 0.0 | 0.00 | 0.19 | 0.19 | 92 | 1011.0 |
| 20260903032144 | 75 | 152 | 0.0 | 0.0 | 0.00 | 0.19 | 0.19 | 91 | 1011.1 |
| 20260903031842 | 75 | 154 | 0.0 | 0.0 | 0.00 | 0.19 | 0.19 | 91 | 1011.1 |
| 20260903031744 | 75 | 152 | 0.0 | 0.0 | 0.00 | 0.19 | 0.19 | 91 | 1011.1 |
| 20260903031727 | 75 | 152 | 0.0 | 0.0 | 0.00 | 0.19 | 0.19 | 91 | 1011.1 |
| 20260903031442 | 75 | 151 | 0.0 | 0.0 | 0.00 | 0.19 | 0.19 | 91 | 1011.1 |
| 20260903031240 | 75 | 154 | 0.0 | 0.0 | 0.00 | 0.19 | 0.19 | 91 | 1011.1 |
| 20260903031227 | 75 | 152 | 0.0 | 0.0 | 0.00 | 0.19 | 0.19 | 91 | 1011.1 |
| 20260903031039 | 75 | 152 | 0.0 | 0.0 | 0.00 | 0.19 | 0.19 | 92 | 1011.1 |
| 20260903030832 | 75 | 152 | 0.0 | 0.0 | 0.00 | 0.19 | 0.19 | 92 | 1011.1 |
| 20260903030744 | 75 | 152 | 0.0 | 0.0 | 0.00 | 0.19 | 0.19 | 92 | 1011.2 |
| 20260903030727 | 75 | 152 | 0.0 | 0.0 | 0.00 | 0.19 | 0.19 | 92 | 1011.1 |
| 20260903030431 | 75 | 152 | 0.0 | 0.0 | 0.00 | 0.19 | 0.19 | 91 | 1011.1 |
| 20260903030337 | 75 | 152 | 0.0 | 0.0 | 0.00 | 0.19 | 0.19 | 91 | 1011.1 |
| 20260903030228 | 75 | 152 | 0.0 | 0.0 | 0.00 | 0.19 | 0.19 | 91 | 1011.1 |
| 20260903030031 | 75 | 152 | 0.0 | 0.0 | 0.00 | 0.19 | 0.19 | 91 | 1011.1 |
| 20260903025830 | 75 | 152 | 0.0 | 0.0 | 0.00 | 0.19 | 0.19 | 91 | 1011.1 |
| 20260903025730 | 75 | 151 | 0.0 | 0.0 | 0.00 | 0.19 | 0.19 | 91 | 1011.1 |
| 20260903025630 | 75 | 152 | 0.0 | 0.0 | 0.00 | 0.19 | 0.19 | 91 | 1011.1 |
| 20260903025430 | 75 | 152 | 0.0 | 0.0 | 0.00 | 0.19 | 0.19 | 91 | 1011.1 |
| 20260903025334 | 75 | 154 | 0.0 | 0.0 | 0.00 | 0.19 | 0.19 | 90 | 1011.1 |
| 20260903025231 | 75 | 154 | 0.0 | 0.0 | 0.00 | 0.19 | 0.19 | 90 | 1011.1 |
| 20260903025024 | 75 | 154 | 0.0 | 0.0 | 0.00 | 0.19 | 0.19 | 90 | 1011.0 |
| 20260903024922 | 75 | 154 | 0.0 | 0.0 | 0.00 | 0.19 | 0.19 | 90 | 1011.1 |
| 20260903024743 | 76 | 152 | 0.0 | 0.0 | 0.00 | 0.19 | 0.19 | 90 | 1011.1 |
| 20260903024728 | 76 | 151 | 0.0 | 0.0 | 0.00 | 0.19 | 0.19 | 90 | 1011.0 |
| 20260903024523 | 76 | 152 | 0.0 | 0.0 | 0.00 | 0.19 | 0.19 | 90 | 1011.1 |
| 20260903024228 | 0 | 151 | 0.0 | 0.0 | 0.00 | 0.19 | 0.19 | 1011.2 | |
| 20260903024007 | 0 | 0.0 | 0.0 | 0.00 | 0.19 | 0.19 | |||
| 20260903023807 | 0 | 0.0 | 0.0 | 0.00 | 0.19 | 0.19 | |||
| 20260903023544 | 0 | 0.0 | 0.0 | 0.00 | 0.19 | 0.19 | |||
| 20260903023524 | 0 | 0.0 | 0.0 | 0.00 | 0.19 | 0.19 | |||
| 20260903023237 | 0 | 0.0 | 0.0 | 0.00 | 0.19 | 0.19 | |||
| 20260903023034 | 0 | 0.0 | 0.0 | 0.00 | 0.19 | 0.19 | |||
| 20260903022809 | 0 | 0.0 | 0.0 | 0.00 | 0.19 | 0.19 | 1010.9 | ||
| 20260903022707 | 0 | 0.0 | 0.0 | 0.00 | 0.19 | 0.19 | 1010.9 | ||
| 20260903022506 | 0 | 0.0 | 0.0 | 0.00 | 0.19 | 0.19 | 1010.9 | ||
| 20260903022320 | 77 | 151 | 0.0 | 0.0 | 0.00 | 0.19 | 0.19 | 89 | 1010.9 |
| 20260903022107 | 77 | 151 | 0.0 | 0.0 | 0.00 | 0.19 | 0.19 | 89 | 1010.9 |
| 20260903021851 | 77 | 151 | 0.0 | 0.0 | 0.00 | 0.19 | 0.19 | 89 | 1010.9 |
| 20260903021804 | 77 | 151 | 0.0 | 0.0 | 0.00 | 0.19 | 0.19 | 89 | 1011.0 |
| 20260903021757 | 77 | 151 | 0.0 | 0.0 | 0.00 | 0.19 | 0.19 | 89 | 1011.0 |
| 20260903021549 | 77 | 151 | 0.0 | 0.0 | 0.00 | 0.19 | 0.19 | 89 | 1011.1 |
| 20260903021302 | 77 | 154 | 0.0 | 0.0 | 0.00 | 0.19 | 0.19 | 89 | 1011.0 |
| 20260903021241 | 77 | 152 | 0.0 | 0.0 | 0.00 | 0.19 | 0.19 | 89 | 1011.0 |
| 20260903021037 | 77 | 154 | 0.0 | 0.0 | 0.00 | 0.19 | 0.19 | 89 | 1011.0 |
| 20260903020836 | 77 | 154 | 0.0 | 0.0 | 0.00 | 0.19 | 0.19 | 89 | 1011.0 |
| 20260903020747 | 77 | 152 | 0.0 | 0.0 | 0.00 | 0.19 | 0.19 | 88 | 1011.0 |
| 20260903020636 | 77 | 154 | 0.0 | 0.0 | 0.00 | 0.19 | 0.19 | 88 | 1011.0 |
| 20260903020537 | 77 | 154 | 0.0 | 0.0 | 0.00 | 0.19 | 0.19 | 88 | 1011.0 |
| 20260903020250 | 77 | 152 | 0.0 | 0.0 | 0.00 | 0.19 | 0.19 | 88 | 1010.9 |
| 20260903020236 | 77 | 152 | 0.0 | 0.0 | 0.00 | 0.19 | 0.19 | 88 | 1011.0 |
| 20260903020035 | 77 | 152 | 0.0 | 0.0 | 0.00 | 0.19 | 0.19 | 88 | 1011.0 |
| 20260903015835 | 77 | 152 | 0.0 | 0.0 | 0.00 | 0.19 | 0.19 | 88 | 1010.9 |
| 20260903015802 | 77 | 152 | 0.0 | 0.0 | 0.00 | 0.19 | 0.19 | 88 | 1010.9 |
| 20260903015735 | 77 | 151 | 0.0 | 0.0 | 0.00 | 0.19 | 0.19 | 87 | 1010.9 |
| 20260903015434 | 77 | 152 | 0.0 | 0.0 | 0.00 | 0.19 | 0.19 | 87 | 1011.0 |
| 20260903015250 | 77 | 151 | 0.0 | 0.0 | 0.00 | 0.19 | 0.19 | 87 | 1010.9 |
| 20260903015233 | 77 | 154 | 0.0 | 0.0 | 0.00 | 0.19 | 0.19 | 87 | 1010.9 |
| 20260903015130 | 78 | 152 | 0.0 | 0.0 | 0.00 | 0.19 | 0.19 | 87 | 1010.9 |
| 20260903014831 | 78 | 152 | 0.0 | 0.0 | 0.00 | 0.19 | 0.19 | 87 | 1010.9 |
| 20260903014747 | 78 | 154 | 0.0 | 0.0 | 0.00 | 0.19 | 0.19 | 87 | 1010.9 |
| 20260903014631 | 78 | 154 | 0.0 | 0.0 | 0.00 | 0.19 | 0.19 | 87 | 1010.9 |
| 20260903014430 | 78 | 152 | 0.0 | 0.0 | 0.00 | 0.19 | 0.19 | 87 | 1010.9 |
| 20260903014328 | 78 | 152 | 0.0 | 0.0 | 0.00 | 0.19 | 0.19 | 87 | 1010.9 |
| 20260903014249 | 78 | 152 | 0.0 | 0.0 | 0.00 | 0.19 | 0.19 | 87 | 1010.9 |
| 20260903014029 | 78 | 152 | 0.0 | 0.0 | 0.00 | 0.19 | 0.19 | 87 | 1010.9 |
| 20260903013830 | 78 | 152 | 0.0 | 0.0 | 0.00 | 0.19 | 0.19 | 87 | 1010.9 |
| 20260903013749 | 78 | 152 | 0.0 | 0.0 | 0.00 | 0.19 | 0.19 | 87 | 1010.9 |
| 20260903013729 | 78 | 151 | 0.0 | 0.0 | 0.00 | 0.19 | 0.19 | 87 | 1010.9 |
| 20260903013432 | 78 | 152 | 0.0 | 0.0 | 0.00 | 0.19 | 0.19 | 87 | 1010.8 |
| 20260903013253 | 78 | 152 | 0.0 | 0.0 | 0.00 | 0.19 | 0.19 | 87 | 1010.9 |
| 20260903013229 | 78 | 154 | 0.0 | 0.0 | 0.00 | 0.19 | 0.19 | 87 | 1010.9 |
| 20260903013022 | 79 | 152 | 0.0 | 0.0 | 0.00 | 0.19 | 0.19 | 87 | 1010.8 |
| 20260903012919 | 79 | 152 | 0.0 | 0.0 | 0.00 | 0.19 | 0.19 | 87 | 1010.7 |
| 20260903012743 | 79 | 154 | 0.0 | 0.0 | 0.00 | 0.19 | 0.19 | 87 | 1010.7 |
| 20260903012619 | 79 | 152 | 0.0 | 0.0 | 0.00 | 0.19 | 0.19 | 87 | 1010.7 |
| 20260903012419 | 79 | 154 | 0.0 | 0.0 | 0.00 | 0.19 | 0.19 | 86 | 1010.7 |
| 20260903012255 | 79 | 154 | 0.0 | 0.0 | 0.00 | 0.19 | 0.19 | 86 | 1010.6 |
| 20260903012218 | 79 | 154 | 0.0 | 0.0 | 0.00 | 0.19 | 0.19 | 86 | 1010.6 |
| 20260903012119 | 79 | 154 | 0.0 | 0.0 | 0.00 | 0.19 | 0.19 | 86 | 1010.6 |
| 20260903011819 | 79 | 154 | 0.0 | 0.0 | 0.00 | 0.19 | 0.19 | 87 | 1010.6 |
| 20260903011745 | 79 | 152 | 0.0 | 0.0 | 0.00 | 0.19 | 0.19 | 87 | 1010.7 |
| 20260903011615 | 80 | 152 | 0.0 | 0.0 | 0.00 | 0.19 | 0.19 | 87 | 1010.7 |
| 20260903011511 | 80 | 154 | 0.0 | 0.0 | 0.00 | 0.19 | 0.19 | 87 | 1010.7 |
| 20260903011214 | 80 | 151 | 0.0 | 0.0 | 0.00 | 0.19 | 0.19 | 86 | 1010.8 |
| 20260903011058 | 80 | 152 | 0.0 | 0.0 | 0.00 | 0.19 | 0.19 | 84 | 1010.6 |
| 20260903011045 | 80 | 154 | 0.0 | 0.0 | 0.00 | 0.19 | 0.19 | 85 | 1010.7 |
| 20260903011006 | 80 | 154 | 0.0 | 0.0 | 0.00 | 0.19 | 0.19 | 84 | 1010.6 |
| 20260903010711 | 80 | 154 | 0.0 | 0.0 | 0.00 | 0.19 | 0.19 | 84 | 1010.5 |
| 20260903010412 | 80 | 152 | 0.0 | 0.0 | 0.00 | 0.19 | 0.19 | 84 | 1010.4 |
| 20260903010251 | 80 | 151 | 0.0 | 0.0 | 0.00 | 0.19 | 0.19 | 83 | 1010.3 |
| 20260903010214 | 80 | 154 | 0.0 | 0.0 | 0.00 | 0.19 | 0.19 | 83 | 1010.3 |
| 20260903010115 | 80 | 152 | 0.0 | 0.0 | 0.00 | 0.19 | 0.19 | 83 | 1010.4 |
| 20260903005811 | 80 | 152 | 0.0 | 0.0 | 0.00 | 0.19 | 0.19 | 83 | 1010.3 |
| 20260903005738 | 80 | 152 | 0.0 | 0.0 | 0.00 | 0.19 | 0.19 | 83 | 1010.4 |
| 20260903005610 | 80 | 152 | 0.0 | 0.0 | 0.00 | 0.19 | 0.19 | 83 | 1010.3 |
| 20260903005410 | 80 | 152 | 0.0 | 0.0 | 0.00 | 0.19 | 0.19 | 83 | 1010.3 |
| 20260903005311 | 80 | 152 | 0.0 | 0.0 | 0.00 | 0.19 | 0.19 | 82 | 1010.5 |
| 20260903005239 | 80 | 152 | 0.0 | 0.0 | 0.00 | 0.19 | 0.19 | 82 | 1010.5 |
| 20260903005009 | 81 | 152 | 0.0 | 0.0 | 0.00 | 0.19 | 0.19 | 82 | 1010.4 |
| 20260903004809 | 81 | 152 | 0.0 | 0.0 | 0.00 | 0.19 | 0.19 | 82 | 1010.4 |
| 20260903004740 | 81 | 152 | 0.0 | 0.0 | 0.00 | 0.19 | 0.19 | 82 | 1010.4 |
| 20260903004706 | 81 | 152 | 0.0 | 0.0 | 0.00 | 0.19 | 0.19 | 82 | 1010.4 |
| 20260903004404 | 81 | 154 | 0.0 | 0.0 | 0.00 | 0.19 | 0.19 | 82 | 1010.3 |
| 20260903004237 | 81 | 152 | 0.0 | 0.0 | 0.00 | 0.19 | 0.19 | 82 | 1010.3 |
| 20260903004205 | 81 | 152 | 0.0 | 0.0 | 0.00 | 0.19 | 0.19 | 82 | 1010.3 |
| 20260903004103 | 81 | 152 | 0.0 | 0.0 | 0.00 | 0.19 | 0.19 | 81 | 1010.4 |
| 20260903003901 | 81 | 152 | 0.0 | 0.0 | 0.00 | 0.19 | 0.19 | 80 | 1010.4 |
| 20260903003736 | 81 | 152 | 0.0 | 0.0 | 0.00 | 0.19 | 0.19 | 80 | 1010.4 |
| 20260903003604 | 81 | 152 | 0.0 | 0.0 | 0.00 | 0.19 | 0.19 | 79 | 1010.4 |
| 20260903003403 | 81 | 152 | 0.0 | 0.0 | 0.00 | 0.19 | 0.19 | 79 | 1010.4 |
| 20260903003237 | 82 | 152 | 0.0 | 0.0 | 0.00 | 0.19 | 0.19 | 79 | 1010.4 |
| 20260903003200 | 82 | 154 | 0.0 | 0.0 | 0.00 | 0.19 | 0.19 | 78 | 1010.4 |
| 20260903002959 | 82 | 152 | 0.0 | 0.0 | 0.00 | 0.19 | 0.19 | 78 | 1010.4 |
| 20260903002758 | 82 | 152 | 0.0 | 0.0 | 0.00 | 0.19 | 0.19 | 77 | 1010.5 |
| 20260903002736 | 82 | 154 | 0.0 | 0.0 | 0.00 | 0.19 | 0.19 | 77 | 1010.4 |
| 20260903002654 | 82 | 152 | 0.0 | 0.0 | 0.00 | 0.19 | 0.19 | 77 | 1010.5 |
| 20260903002458 | 82 | 152 | 0.0 | 0.0 | 0.00 | 0.19 | 0.19 | 76 | 1010.5 |
| 20260903002234 | 83 | 152 | 0.0 | 0.0 | 0.00 | 0.19 | 0.19 | 76 | 1010.5 |
| 20260903002159 | 83 | 154 | 0.0 | 0.0 | 0.00 | 0.19 | 0.19 | 76 | 1010.5 |
| 20260903001957 | 83 | 152 | 0.0 | 0.0 | 0.00 | 0.19 | 0.19 | 76 | 1010.4 |
| 20260903001757 | 83 | 152 | 0.0 | 0.0 | 0.00 | 0.19 | 0.19 | 75 | 1010.4 |
| 20260903001735 | 83 | 152 | 0.0 | 0.0 | 0.00 | 0.19 | 0.19 | 75 | 1010.5 |
| 20260903001553 | 83 | 152 | 0.0 | 0.0 | 0.00 | 0.19 | 0.19 | 74 | 1010.4 |
| 20260903001354 | 84 | 152 | 0.0 | 0.0 | 0.00 | 0.19 | 0.19 | 74 | 1010.4 |
| 20260903001251 | 84 | 151 | 0.0 | 0.0 | 0.00 | 0.19 | 0.19 | 74 | 1010.4 |
| 20260903001233 | 84 | 152 | 0.0 | 0.0 | 0.00 | 0.19 | 0.19 | 74 | 1010.4 |
| 20260903001052 | 84 | 152 | 0.0 | 0.0 | 0.00 | 0.19 | 0.19 | 73 | 1010.5 |
| 20260903000753 | 85 | 152 | 0.0 | 0.0 | 0.00 | 0.19 | 0.19 | 72 | 1010.5 |
| 20260903000732 | 85 | 152 | 0.0 | 0.0 | 0.00 | 0.19 | 0.19 | 72 | 1010.4 |
| 20260903000551 | 85 | 154 | 0.0 | 0.0 | 0.00 | 0.19 | 0.19 | 71 | 1010.4 |
| 20260903000355 | 85 | 152 | 0.0 | 0.0 | 0.00 | 0.19 | 0.19 | 71 | 1010.5 |
| 20260903000233 | 85 | 154 | 0.0 | 0.0 | 0.00 | 0.19 | 0.19 | 70 | 1010.5 |
| 20260903000151 | 85 | 152 | 0.0 | 0.0 | 0.00 | 0.19 | 0.19 | 71 | 1010.5 |
| 20260902235950 | 86 | 152 | 0.0 | 1.0 | 0.00 | 0.19 | 0.19 | 71 | 1010.5 |
| 20260902235749 | 86 | 154 | 0.0 | 2.0 | 0.00 | 0.19 | 0.19 | 70 | 1010.6 |
| 20260902235730 | 86 | 154 | 0.0 | 2.0 | 0.00 | 0.19 | 0.19 | 69 | 1010.5 |
| 20260902235648 | 86 | 152 | 0.0 | 2.0 | 0.00 | 0.19 | 0.19 | 69 | 1010.5 |
| 20260902235442 | 86 | 152 | 0.0 | 2.0 | 0.00 | 0.19 | 0.19 | 69 | 1010.5 |
| 20260902235231 | 86 | 151 | 0.0 | 2.0 | 0.00 | 0.19 | 0.19 | 69 | 1010.5 |
| 20260902235145 | 86 | 152 | 0.0 | 2.0 | 0.00 | 0.19 | 0.19 | 69 | 1010.5 |
| 20260902234949 | 87 | 152 | 0.0 | 2.0 | 0.00 | 0.19 | 0.19 | 68 | 1010.4 |
| 20260902234732 | 87 | 152 | 0.0 | 2.0 | 0.00 | 0.19 | 0.19 | 69 | 1010.5 |
| 20260902234547 | 87 | 152 | 0.0 | 2.0 | 0.00 | 0.19 | 0.19 | 69 | 1010.5 |
| 20260902234339 | 87 | 152 | 0.0 | 2.0 | 0.00 | 0.19 | 0.19 | 70 | 1010.6 |
| 20260902234238 | 87 | 152 | 0.0 | 2.0 | 0.00 | 0.19 | 0.19 | 70 | 1010.6 |
| 20260902234233 | 87 | 154 | 0.0 | 2.0 | 0.00 | 0.19 | 0.19 | 71 | 1010.5 |
| 20260902234032 | 87 | 152 | 0.0 | 2.0 | 0.00 | 0.19 | 0.19 | 68 | 1010.5 |
| 20260902233736 | 87 | 154 | 0.0 | 2.0 | 0.00 | 0.19 | 0.19 | 67 | 1010.5 |
| 20260902233730 | 87 | 151 | 0.0 | 2.0 | 0.00 | 0.19 | 0.19 | 67 | 1010.5 |
| 20260902233532 | 88 | 152 | 0.0 | 2.0 | 0.00 | 0.19 | 0.19 | 66 | 1010.5 |
| 20260902233331 | 88 | 151 | 0.0 | 2.0 | 0.00 | 0.19 | 0.19 | 67 | 1010.5 |
| 20260902233230 | 88 | 151 | 0.0 | 2.0 | 0.00 | 0.19 | 0.19 | 68 | 1010.6 |
| 20260902233131 | 88 | 151 | 0.0 | 2.0 | 0.00 | 0.19 | 0.19 | 68 | 1010.5 |
| 20260902232932 | 88 | 152 | 0.0 | 3.0 | 0.00 | 0.19 | 0.19 | 65 | 1010.6 |
| 20260902232831 | 88 | 152 | 0.0 | 3.0 | 0.00 | 0.19 | 0.19 | 66 | 1010.5 |
| 20260902232729 | 88 | 152 | 0.0 | 3.0 | 0.00 | 0.19 | 0.19 | 66 | 1010.5 |
| 20260902232530 | 88 | 154 | 0.0 | 3.0 | 0.00 | 0.19 | 0.19 | 65 | 1010.6 |
| 20260902232331 | 88 | 151 | 0.0 | 3.0 | 0.00 | 0.19 | 0.19 | 67 | 1010.6 |
| 20260902232241 | 88 | 152 | 0.0 | 3.0 | 0.00 | 0.19 | 0.19 | 67 | 1010.6 |
| 20260902232129 | 88 | 154 | 0.0 | 3.0 | 0.00 | 0.19 | 0.19 | 68 | 1010.6 |
| 20260902231928 | 88 | 135 | 0.0 | 2.0 | 0.00 | 0.19 | 0.19 | 67 | 1010.5 |
| 20260902231730 | 88 | 133 | 0.0 | 2.0 | 0.00 | 0.19 | 0.19 | 64 | 1010.6 |
| 20260902231533 | 88 | 134 | 0.0 | 2.0 | 0.00 | 0.19 | 0.19 | 63 | 1010.6 |
| 20260902231526 | 89 | 134 | 0.0 | 2.0 | 0.00 | 0.19 | 0.19 | 64 | 1010.6 |
| 20260902231226 | 89 | 134 | 0.0 | 2.0 | 0.00 | 0.19 | 0.19 | 63 | 1010.6 |
| 20260902231129 | 89 | 133 | 0.0 | 2.0 | 0.00 | 0.19 | 0.19 | 64 | 1010.6 |
| 20260902230923 | 89 | 130 | 0.0 | 2.0 | 0.00 | 0.19 | 0.19 | 64 | 1010.6 |
| 20260902230728 | 89 | 130 | 0.0 | 2.0 | 0.00 | 0.19 | 0.19 | 63 | 1010.6 |
| 20260902230721 | 89 | 131 | 0.0 | 2.0 | 0.00 | 0.19 | 0.19 | 63 | 1010.6 |
| 20260902230520 | 88 | 131 | 0.0 | 2.0 | 0.00 | 0.19 | 0.19 | 66 | 1010.6 |
| 20260902230319 | 88 | 130 | 0.0 | 2.0 | 0.00 | 0.19 | 0.19 | 65 | 1010.6 |
| 20260902230225 | 88 | 128 | 0.0 | 2.0 | 0.00 | 0.19 | 0.19 | 66 | 1010.6 |
| 20260902230119 | 88 | 128 | 0.0 | 2.0 | 0.00 | 0.19 | 0.19 | 66 | 1010.6 |
| 20260902230111 | 87 | 128 | 0.0 | 2.0 | 0.00 | 0.19 | 0.19 | 65 | 1010.6 |
| 20260902225712 | 87 | 130 | 0.0 | 3.0 | 0.00 | 0.19 | 0.19 | 66 | 1010.7 |
| 20260902225516 | 87 | 128 | 0.0 | 3.0 | 0.00 | 0.19 | 0.19 | 66 | 1010.6 |
| 20260902225317 | 87 | 127 | 0.0 | 3.0 | 0.00 | 0.19 | 0.19 | 66 | 1010.7 |
| 20260902225214 | 87 | 130 | 0.0 | 3.0 | 0.00 | 0.19 | 0.19 | 67 | 1010.6 |
| 20260902225116 | 87 | 128 | 0.0 | 3.0 | 0.00 | 0.19 | 0.19 | 68 | 1010.7 |
| 20260902224914 | 87 | 128 | 0.0 | 3.0 | 0.00 | 0.19 | 0.19 | 67 | 1010.6 |
| 20260902224711 | 87 | 130 | 0.0 | 2.0 | 0.00 | 0.19 | 0.19 | 68 | 1010.6 |
| 20260902224513 | 87 | 130 | 0.0 | 2.0 | 0.00 | 0.19 | 0.19 | 67 | 1010.6 |
| 20260902224414 | 87 | 182 | 0.0 | 2.0 | 0.00 | 0.19 | 0.19 | 68 | 1010.6 |
| 20260902224214 | 87 | 190 | 0.0 | 2.0 | 0.00 | 0.19 | 0.19 | 68 | 1010.5 |
| 20260902224210 | 87 | 179 | 0.0 | 2.0 | 0.00 | 0.19 | 0.19 | 68 | 1010.5 |
| 20260902223911 | 87 | 190 | 0.0 | 2.0 | 0.00 | 0.19 | 0.19 | 70 | 1010.6 |
| 20260902223715 | 87 | 190 | 0.0 | 1.0 | 0.00 | 0.19 | 0.19 | 68 | 1010.5 |
| 20260902223709 | 87 | 193 | 0.0 | 1.0 | 0.00 | 0.19 | 0.19 | 68 | 1010.5 |
| 20260902223512 | 87 | 193 | 0.0 | 0.0 | 0.00 | 0.19 | 0.19 | 68 | 1010.6 |
| 20260902223313 | 87 | 193 | 0.0 | 3.0 | 0.00 | 0.19 | 0.19 | 68 | 1010.7 |
| 20260902223207 | 87 | 192 | 0.0 | 4.0 | 0.00 | 0.19 | 0.19 | 67 | 1010.7 |
| 20260902223117 | 87 | 193 | 0.0 | 4.0 | 0.00 | 0.19 | 0.19 | 69 | 1010.7 |
| 20260902223112 | 87 | 192 | 0.0 | 4.0 | 0.00 | 0.19 | 0.19 | 68 | 1010.6 |
| 20260902222959 | 87 | 193 | 0.0 | 4.0 | 0.00 | 0.19 | 0.19 | 69 | 1010.7 |
| 20260902222945 | 87 | 193 | 0.0 | 4.0 | 0.00 | 0.19 | 0.19 | 68 | 1010.7 |
| 20260902222506 | 87 | 193 | 0.0 | 4.0 | 0.00 | 0.19 | 0.19 | 65 | 1010.7 |
| 20260902222306 | 87 | 192 | 0.0 | 4.0 | 0.00 | 0.19 | 0.19 | 66 | 1010.8 |
| 20260902222208 | 87 | 193 | 0.0 | 3.0 | 0.00 | 0.19 | 0.19 | 65 | 1010.7 |
| 20260902222105 | 87 | 192 | 0.0 | 3.0 | 0.00 | 0.19 | 0.19 | 65 | 1010.7 |
| 20260902221905 | 87 | 190 | 0.0 | 4.0 | 0.00 | 0.19 | 0.19 | 64 | 1010.7 |
| 20260902221708 | 87 | 192 | 0.0 | 4.0 | 0.00 | 0.19 | 0.19 | 64 | 1010.7 |
| 20260902221603 | 87 | 193 | 0.0 | 4.0 | 0.00 | 0.19 | 0.19 | 64 | 1010.7 |
| 20260902221402 | 87 | 193 | 0.0 | 4.0 | 0.00 | 0.19 | 0.19 | 64 | 1010.7 |
| 20260902221217 | 88 | 190 | 0.0 | 4.0 | 0.00 | 0.19 | 0.19 | 66 | 1010.6 |
| 20260902221104 | 87 | 193 | 0.0 | 4.0 | 0.00 | 0.19 | 0.19 | 64 | 1010.7 |
| 20260902220903 | 87 | 193 | 0.0 | 4.0 | 0.00 | 0.19 | 0.19 | 66 | 1010.7 |
| 20260902220705 | 87 | 195 | 0.0 | 4.0 | 0.00 | 0.19 | 0.19 | 66 | 1010.7 |
| 20260902220504 | 88 | 189 | 0.0 | 4.0 | 0.00 | 0.19 | 0.19 | 65 | 1010.7 |
| 20260902220302 | 88 | 190 | 0.0 | 4.0 | 0.00 | 0.19 | 0.19 | 65 | 1010.7 |
| 20260902220211 | 88 | 189 | 0.0 | 4.0 | 0.00 | 0.19 | 0.19 | 66 | 1010.6 |
| 20260902220206 | 88 | 188 | 0.0 | 4.0 | 0.00 | 0.19 | 0.19 | 64 | 1010.6 |
| 20260902220009 | 88 | 37 | 0.0 | 3.0 | 0.00 | 0.19 | 0.19 | 67 | 1010.7 |
| 20260902215705 | 88 | 37 | 0.0 | 2.0 | 0.00 | 0.19 | 0.19 | 68 | 1010.7 |
| 20260902215505 | 87 | 35 | 0.0 | 1.0 | 0.00 | 0.19 | 0.19 | 69 | 1010.7 |
| 20260902215306 | 87 | 35 | 0.0 | 2.0 | 0.00 | 0.19 | 0.19 | 69 | 1010.7 |
| 20260902215207 | 88 | 178 | 0.0 | 2.0 | 0.00 | 0.19 | 0.19 | 70 | 1010.7 |
| 20260902215107 | 88 | 178 | 0.0 | 2.0 | 0.00 | 0.19 | 0.19 | 70 | 1010.7 |
| 20260902214955 | 87 | 178 | 0.0 | 4.0 | 0.00 | 0.19 | 0.19 | 66 | 1010.8 |
| 20260902214951 | 87 | 178 | 0.0 | 4.0 | 0.00 | 0.19 | 0.19 | 66 | 1010.8 |
| 20260902214937 | 88 | 179 | 0.0 | 3.0 | 0.00 | 0.19 | 0.19 | 70 | 1010.7 |
| 20260902214535 | 87 | 180 | 0.0 | 4.0 | 0.00 | 0.19 | 0.19 | 68 | 1010.9 |
| 20260902214237 | 87 | 179 | 0.0 | 4.0 | 0.00 | 0.19 | 0.19 | 67 | 1010.8 |
| 20260902214202 | 87 | 179 | 0.0 | 4.0 | 0.00 | 0.19 | 0.19 | 67 | 1010.8 |
| 20260902214039 | 87 | 179 | 0.0 | 4.0 | 0.00 | 0.19 | 0.19 | 66 | 1010.8 |
| 20260902213835 | 88 | 178 | 0.0 | 4.0 | 0.00 | 0.19 | 0.19 | 65 | 1010.9 |
| 20260902213701 | 88 | 172 | 0.0 | 4.0 | 0.00 | 0.19 | 0.19 | 66 | 1010.9 |
| 20260902213636 | 88 | 171 | 0.0 | 4.0 | 0.00 | 0.19 | 0.19 | 65 | 1010.8 |
| 20260902213436 | 88 | 171 | 0.0 | 4.0 | 0.00 | 0.19 | 0.19 | 65 | 1010.8 |
| 20260902213302 | 87 | 172 | 0.0 | 5.0 | 0.00 | 0.19 | 0.19 | 64 | 1010.8 |
| 20260902213201 | 88 | 172 | 0.0 | 5.0 | 0.00 | 0.19 | 0.19 | 64 | 1010.8 |
| 20260902213102 | 88 | 172 | 0.0 | 5.0 | 0.00 | 0.19 | 0.19 | 65 | 1010.9 |
| 20260902212807 | 88 | 157 | 0.0 | 5.0 | 0.00 | 0.19 | 0.19 | 64 | 1010.9 |
| 20260902212702 | 88 | 155 | 0.0 | 5.0 | 0.00 | 0.19 | 0.19 | 66 | 1010.9 |
| 20260902212607 | 88 | 151 | 0.0 | 5.0 | 0.00 | 0.19 | 0.19 | 66 | 1010.9 |
| 20260902212348 | 88 | 151 | 0.0 | 5.0 | 0.00 | 0.19 | 0.19 | 66 | 1011.0 |
| 20260902212245 | 88 | 0 | 0.0 | 4.0 | 0.00 | 0.19 | 0.19 | 67 | 1010.9 |
| 20260902212202 | 88 | 0 | 0.0 | 4.0 | 0.00 | 0.19 | 0.19 | 67 | 1010.9 |
| 20260902211946 | 88 | 1 | 0.0 | 4.0 | 0.00 | 0.19 | 0.19 | 66 | 1010.9 |
| 20260902211852 | 88 | 0 | 0.0 | 4.0 | 0.00 | 0.19 | 0.19 | 63 | 1011.0 |
| 20260902211701 | 88 | 0 | 0.0 | 4.0 | 0.00 | 0.19 | 0.19 | 63 | 1011.0 |
| 20260902211548 | 89 | 42 | 0.0 | 4.0 | 0.00 | 0.19 | 0.19 | 67 | 1011.0 |
| 20260902211349 | 89 | 58 | 0.0 | 4.0 | 0.00 | 0.19 | 0.19 | 66 | 1010.9 |
| 20260902211201 | 89 | 17 | 0.0 | 3.0 | 0.00 | 0.19 | 0.19 | 67 | 1011.0 |
| 20260902211137 | 89 | 17 | 0.0 | 3.0 | 0.00 | 0.19 | 0.19 | 66 | 1011.0 |
| 20260902210937 | 88 | 63 | 0.0 | 3.0 | 0.00 | 0.19 | 0.19 | 65 | 1011.0 |
| 20260902210835 | 88 | 152 | 0.0 | 3.0 | 0.00 | 0.19 | 0.19 | 64 | 1011.0 |
| 20260902210702 | 88 | 151 | 0.0 | 3.0 | 0.00 | 0.19 | 0.19 | 64 | 1011.0 |
| 20260902210535 | 88 | 152 | 0.0 | 4.0 | 0.00 | 0.19 | 0.19 | 64 | 1011.0 |
| 20260902210432 | 88 | 41 | 0.0 | 4.0 | 0.00 | 0.19 | 0.19 | 64 | 1011.0 |
| 20260902210203 | 88 | 37 | 0.0 | 4.0 | 0.00 | 0.19 | 0.19 | 64 | 1011.0 |
| 20260902210134 | 89 | 37 | 0.0 | 4.0 | 0.00 | 0.19 | 0.19 | 64 | 1011.1 |
| 20260902210008 | 88 | 65 | 0.0 | 4.0 | 0.00 | 0.19 | 0.19 | 66 | 1011.1 |
| 20260902205949 | 88 | 32 | 0.0 | 4.0 | 0.00 | 0.19 | 0.19 | 65 | 1011.1 |
| 20260902205918 | 88 | 65 | 0.0 | 4.0 | 0.00 | 0.19 | 0.19 | 66 | 1011.1 |
| 20260902205534 | 88 | 144 | 0.0 | 3.0 | 0.00 | 0.19 | 0.19 | 62 | 1011.1 |
| 20260902205434 | 89 | 142 | 0.0 | 3.0 | 0.00 | 0.19 | 0.19 | 65 | 1011.1 |
| 20260902205201 | 89 | 37 | 0.0 | 4.0 | 0.00 | 0.19 | 0.19 | 66 | 1011.1 |
| 20260902205133 | 89 | 39 | 0.0 | 4.0 | 0.00 | 0.19 | 0.19 | 66 | 1011.1 |
| 20260902205050 | 88 | 37 | 0.0 | 4.0 | 0.00 | 0.19 | 0.19 | 66 | 1011.0 |
| 20260902204959 | 88 | 38 | 0.0 | 4.0 | 0.00 | 0.19 | 0.19 | 67 | 1011.0 |
| 20260902204918 | 88 | 38 | 0.0 | 4.0 | 0.00 | 0.19 | 0.19 | 65 | 1011.0 |
| 20260902204523 | 88 | 38 | 0.0 | 4.0 | 0.00 | 0.19 | 0.19 | 64 | 1011.0 |
| 20260902204323 | 88 | 41 | 0.0 | 4.0 | 0.00 | 0.19 | 0.19 | 65 | 1011.0 |
| 20260902204202 | 88 | 350 | 0.0 | 4.0 | 0.00 | 0.19 | 0.19 | 65 | 1011.0 |
| 20260902204121 | 88 | 42 | 0.0 | 4.0 | 0.00 | 0.19 | 0.19 | 65 | 1011.0 |
| 20260902204006 | 88 | 68 | 0.0 | 4.0 | 0.00 | 0.19 | 0.19 | 64 | 1011.1 |
| 20260902203950 | 88 | 44 | 0.0 | 4.0 | 0.00 | 0.19 | 0.19 | 64 | 1011.0 |
| 20260902203918 | 88 | 45 | 0.0 | 4.0 | 0.00 | 0.19 | 0.19 | 64 | 1011.1 |
| 20260902203618 | 89 | 73 | 0.0 | 4.0 | 0.00 | 0.19 | 0.19 | 64 | 1011.0 |
| 20260902203419 | 89 | 31 | 0.0 | 4.0 | 0.00 | 0.19 | 0.19 | 70 | 1011.0 |
| 20260902203203 | 88 | 31 | 0.0 | 4.0 | 0.00 | 0.19 | 0.19 | 67 | 1011.0 |
| 20260902203119 | 88 | 27 | 0.0 | 4.0 | 0.00 | 0.19 | 0.19 | 68 | 1011.0 |
| 20260902202915 | 88 | 41 | 0.0 | 4.0 | 0.00 | 0.19 | 0.19 | 68 | 1011.0 |
| 20260902202702 | 87 | 52 | 0.0 | 5.0 | 0.00 | 0.19 | 0.19 | 69 | 1011.1 |
| 20260902202513 | 88 | 52 | 0.0 | 6.0 | 0.00 | 0.19 | 0.19 | 67 | 1011.0 |
| 20260902202313 | 88 | 55 | 0.0 | 6.0 | 0.00 | 0.19 | 0.19 | 65 | 1011.1 |
| 20260902202211 | 88 | 76 | 0.0 | 6.0 | 0.00 | 0.19 | 0.19 | 68 | 1011.1 |
| 20260902202204 | 88 | 58 | 0.0 | 6.0 | 0.00 | 0.19 | 0.19 | 66 | 1011.1 |
| 20260902202016 | 88 | 45 | 0.0 | 6.0 | 0.00 | 0.19 | 0.19 | 66 | 1011.1 |
| 20260902201711 | 88 | 38 | 0.0 | 6.0 | 0.00 | 0.19 | 0.19 | 68 | 1011.1 |
| 20260902201646 | 88 | 38 | 0.0 | 6.0 | 0.00 | 0.19 | 0.19 | 68 | 1011.1 |
| 20260902201511 | 87 | 48 | 0.0 | 3.0 | 0.00 | 0.19 | 0.19 | 69 | 1011.1 |
| 20260902201312 | 87 | 49 | 0.0 | 3.0 | 0.00 | 0.19 | 0.19 | 65 | 1011.1 |
| 20260902201150 | 87 | 49 | 0.0 | 3.0 | 0.00 | 0.19 | 0.19 | 67 | 1011.1 |
| 20260902201110 | 87 | 49 | 0.0 | 3.0 | 0.00 | 0.19 | 0.19 | 65 | 1011.4 |
| 20260902200909 | 87 | 56 | 0.0 | 5.0 | 0.00 | 0.19 | 0.19 | 67 | 1011.4 |
| 20260902200806 | 87 | 38 | 0.0 | 5.0 | 0.00 | 0.19 | 0.19 | 68 | 1011.2 |
| 20260902200648 | 87 | 37 | 0.0 | 5.0 | 0.00 | 0.19 | 0.19 | 72 | 1011.2 |
| 20260902200609 | 87 | 37 | 0.0 | 5.0 | 0.00 | 0.19 | 0.19 | 66 | 1011.4 |
| 20260902200310 | 87 | 37 | 0.0 | 5.0 | 0.00 | 0.19 | 0.19 | 67 | 1011.4 |
| 20260902200148 | 87 | 38 | 0.0 | 5.0 | 0.00 | 0.19 | 0.19 | 65 | 1011.4 |
| 20260902200108 | 88 | 59 | 0.0 | 5.0 | 0.00 | 0.19 | 0.19 | 65 | 1011.4 |
| 20260902195909 | 88 | 34 | 0.0 | 5.0 | 0.00 | 0.19 | 0.19 | 69 | 1011.5 |
| 20260902195704 | 87 | 59 | 0.0 | 5.0 | 0.00 | 0.19 | 0.19 | 68 | 1011.6 |
| 20260902195648 | 87 | 61 | 0.0 | 5.0 | 0.00 | 0.19 | 0.19 | 68 | 1011.6 |
| 20260902195602 | 87 | 28 | 0.0 | 4.0 | 0.00 | 0.19 | 0.19 | 71 | 1011.6 |
| 20260902195306 | 87 | 49 | 0.0 | 4.0 | 0.00 | 0.19 | 0.19 | 71 | 1011.6 |
| 20260902195202 | 87 | 49 | 0.0 | 4.0 | 0.00 | 0.19 | 0.19 | 71 | 1011.7 |
| 20260902195148 | 87 | 49 | 0.0 | 4.0 | 0.00 | 0.19 | 0.19 | 72 | 1011.6 |
| 20260902194952 | 87 | 51 | 0.0 | 4.0 | 0.00 | 0.19 | 0.19 | 69 | 1011.8 |
| 20260902194939 | 86 | 51 | 0.0 | 4.0 | 0.00 | 0.19 | 0.19 | 67 | 1011.7 |
| 20260902194903 | 87 | 49 | 0.0 | 4.0 | 0.00 | 0.19 | 0.19 | 69 | 1011.7 |
| 20260902194504 | 87 | 52 | 0.0 | 4.0 | 0.00 | 0.19 | 0.19 | 66 | 1011.8 |
| 20260902194304 | 87 | 250 | 0.0 | 3.0 | 0.00 | 0.19 | 0.19 | 71 | 1011.8 |
| 20260902194203 | 87 | 250 | 0.0 | 3.0 | 0.00 | 0.19 | 0.19 | 71 | 1011.7 |
| 20260902194146 | 87 | 251 | 0.0 | 3.0 | 0.00 | 0.19 | 0.19 | 66 | 1011.7 |
| 20260902193905 | 86 | 189 | 0.0 | 3.0 | 0.00 | 0.19 | 0.19 | 68 | 1011.8 |
| 20260902193801 | 86 | 192 | 0.0 | 4.0 | 0.00 | 0.19 | 0.19 | 67 | 1011.8 |
| 20260902193645 | 86 | 192 | 0.0 | 4.0 | 0.00 | 0.19 | 0.19 | 67 | 1011.9 |
| 20260902193502 | 86 | 192 | 0.0 | 4.0 | 0.00 | 0.19 | 0.19 | 68 | 1012.0 |
| 20260902193304 | 86 | 192 | 0.0 | 4.0 | 0.00 | 0.19 | 0.19 | 66 | 1011.9 |
| 20260902193147 | 86 | 41 | 0.0 | 4.0 | 0.00 | 0.19 | 0.19 | 69 | 1012.0 |
| 20260902193102 | 86 | 39 | 0.0 | 4.0 | 0.00 | 0.19 | 0.19 | 68 | 1011.9 |
| 20260902192902 | 86 | 41 | 0.0 | 4.0 | 0.00 | 0.19 | 0.19 | 67 | 1011.9 |
| 20260902192800 | 86 | 41 | 0.0 | 4.0 | 0.00 | 0.19 | 0.19 | 65 | 1011.9 |
| 20260902192645 | 86 | 58 | 0.0 | 4.0 | 0.00 | 0.19 | 0.19 | 66 | 1011.9 |
| 20260902192502 | 86 | 59 | 0.0 | 4.0 | 0.00 | 0.19 | 0.19 | 69 | 1011.9 |
| 20260902192306 | 86 | 59 | 0.0 | 3.0 | 0.00 | 0.19 | 0.19 | 70 | 1011.9 |
| 20260902192145 | 86 | 138 | 0.0 | 3.0 | 0.00 | 0.19 | 0.19 | 66 | 1012.0 |
| 20260902192101 | 86 | 39 | 0.0 | 3.0 | 0.00 | 0.19 | 0.19 | 66 | 1012.0 |
| 20260902191958 | 86 | 47 | 0.0 | 3.0 | 0.00 | 0.19 | 0.19 | 70 | 1011.9 |
| 20260902191657 | 85 | 180 | 0.0 | 4.0 | 0.00 | 0.19 | 0.19 | 70 | 1011.9 |
| 20260902191645 | 85 | 179 | 0.0 | 4.0 | 0.00 | 0.19 | 0.19 | 70 | 1011.9 |
| 20260902191455 | 85 | 180 | 0.0 | 4.0 | 0.00 | 0.19 | 0.19 | 70 | 1011.9 |
| 20260902191359 | 84 | 179 | 0.0 | 4.0 | 0.00 | 0.19 | 0.19 | 71 | 1011.8 |
| 20260902191145 | 84 | 182 | 0.0 | 4.0 | 0.00 | 0.19 | 0.19 | 70 | 1011.9 |
| 20260902191054 | 84 | 180 | 0.0 | 4.0 | 0.00 | 0.19 | 0.19 | 71 | 1011.9 |
| 20260902190854 | 84 | 179 | 0.0 | 4.0 | 0.00 | 0.19 | 0.19 | 70 | 1011.9 |
| 20260902190654 | 84 | 179 | 0.0 | 4.0 | 0.00 | 0.19 | 0.19 | 68 | 1011.9 |
| 20260902190645 | 84 | 178 | 0.0 | 4.0 | 0.00 | 0.19 | 0.19 | 68 | 1011.9 |
| 20260902190555 | 85 | 179 | 0.0 | 4.0 | 0.00 | 0.19 | 0.19 | 68 | 1012.0 |
| 20260902190252 | 85 | 117 | 0.0 | 5.0 | 0.00 | 0.19 | 0.19 | 69 | 1011.9 |
| 20260902190146 | 85 | 117 | 0.0 | 6.0 | 0.00 | 0.19 | 0.19 | 68 | 1011.9 |
| 20260902190052 | 85 | 169 | 0.0 | 6.0 | 0.00 | 0.19 | 0.19 | 66 | 1011.9 |
| 20260902185952 | 85 | 38 | 0.0 | 6.0 | 0.00 | 0.19 | 0.19 | 70 | 1011.9 |
| 20260902185654 | 85 | 38 | 0.0 | 6.0 | 0.00 | 0.19 | 0.19 | 70 | 1011.9 |
| 20260902185645 | 85 | 39 | 0.0 | 6.0 | 0.00 | 0.19 | 0.19 | 70 | 1011.9 |
| 20260902185451 | 85 | 37 | 0.0 | 6.0 | 0.00 | 0.19 | 0.19 | 71 | 1012.0 |
| 20260902185248 | 85 | 10 | 0.0 | 5.0 | 0.00 | 0.19 | 0.19 | 74 | 1011.8 |
| 20260902185152 | 85 | 38 | 0.0 | 5.0 | 0.00 | 0.19 | 0.19 | 71 | 1011.9 |
| 20260902185145 | 85 | 4 | 0.0 | 5.0 | 0.00 | 0.19 | 0.19 | 68 | 1011.9 |
| 20260902184847 | 85 | 58 | 0.0 | 5.0 | 0.00 | 0.19 | 0.19 | 71 | 1012.0 |
| 20260902184645 | 85 | 58 | 0.0 | 5.0 | 0.00 | 0.19 | 0.19 | 70 | 1012.1 |
| 20260902184550 | 84 | 148 | 0.0 | 4.0 | 0.00 | 0.19 | 0.19 | 71 | 1012.1 |
| 20260902184251 | 84 | 148 | 0.0 | 4.0 | 0.00 | 0.19 | 0.19 | 71 | 1012.2 |
| 20260902184148 | 84 | 148 | 0.0 | 4.0 | 0.00 | 0.19 | 0.19 | 71 | 1012.2 |
| 20260902184048 | 84 | 148 | 0.0 | 4.0 | 0.00 | 0.19 | 0.19 | 69 | 1012.1 |
| 20260902183849 | 85 | 148 | 0.0 | 4.0 | 0.00 | 0.19 | 0.19 | 70 | 1012.1 |
| 20260902183649 | 84 | 128 | 0.0 | 3.0 | 0.00 | 0.19 | 0.19 | 69 | 1012.1 |
| 20260902183447 | 85 | 125 | 0.0 | 3.0 | 0.00 | 0.19 | 0.19 | 72 | 1012.2 |
| 20260902183248 | 85 | 90 | 0.0 | 3.0 | 0.00 | 0.19 | 0.19 | 71 | 1012.1 |
| 20260902183148 | 84 | 69 | 0.0 | 3.0 | 0.00 | 0.19 | 0.19 | 69 | 1012.1 |
| 20260902183053 | 84 | 59 | 0.0 | 4.0 | 0.00 | 0.19 | 0.19 | 70 | 1012.2 |
| 20260902183047 | 85 | 78 | 0.0 | 3.0 | 0.00 | 0.19 | 0.19 | 70 | 1012.1 |
| 20260902182648 | 84 | 41 | 0.0 | 4.0 | 0.00 | 0.19 | 0.19 | 71 | 1012.1 |
| 20260902182450 | 84 | 159 | 0.0 | 4.0 | 0.00 | 0.19 | 0.19 | 70 | 1012.1 |
| 20260902182443 | 85 | 151 | 0.0 | 4.0 | 0.00 | 0.19 | 0.19 | 70 | 1012.2 |
| 20260902182413 | 85 | 158 | 0.0 | 4.0 | 0.00 | 0.19 | 0.19 | 67 | 1012.2 |
| 20260902182046 | 85 | 41 | 0.0 | 4.0 | 0.00 | 0.19 | 0.19 | 67 | 1012.2 |
| 20260902181847 | 85 | 35 | 0.0 | 3.0 | 0.00 | 0.19 | 0.19 | 71 | 1012.1 |
| 20260902181659 | 84 | 38 | 0.0 | 5.0 | 0.00 | 0.19 | 0.19 | 71 | 1012.2 |
| 20260902181648 | 85 | 38 | 0.0 | 3.0 | 0.00 | 0.19 | 0.19 | 74 | 1012.2 |
| 20260902181249 | 84 | 37 | 0.0 | 5.0 | 0.00 | 0.19 | 0.19 | 71 | 1012.2 |
| 20260902181148 | 84 | 38 | 0.0 | 5.0 | 0.00 | 0.19 | 0.19 | 69 | 1012.2 |
| 20260902181046 | 84 | 38 | 0.0 | 5.0 | 0.00 | 0.19 | 0.19 | 69 | 1012.1 |
| 20260902180846 | 84 | 52 | 0.0 | 5.0 | 0.00 | 0.19 | 0.19 | 70 | 1012.2 |
| 20260902180648 | 84 | 51 | 0.0 | 5.0 | 0.00 | 0.19 | 0.19 | 73 | 1012.2 |
| 20260902180447 | 83 | 39 | 0.0 | 6.0 | 0.00 | 0.19 | 0.19 | 70 | 1012.3 |
| 20260902180249 | 83 | 39 | 0.0 | 6.0 | 0.00 | 0.19 | 0.19 | 73 | 1012.4 |
| 20260902180148 | 83 | 42 | 0.0 | 6.0 | 0.00 | 0.19 | 0.19 | 71 | 1012.4 |
| 20260902180049 | 83 | 87 | 0.0 | 6.0 | 0.00 | 0.19 | 0.19 | 72 | 1012.4 |
| 20260902175947 | 83 | 34 | 0.0 | 6.0 | 0.00 | 0.19 | 0.19 | 73 | 1012.5 |
| 20260902175752 | 83 | 56 | 0.0 | 6.0 | 0.00 | 0.19 | 0.19 | 72 | 1012.5 |
| 20260902175649 | 83 | 56 | 0.0 | 6.0 | 0.00 | 0.19 | 0.19 | 72 | 1012.5 |
| 20260902175447 | 83 | 11 | 0.0 | 4.0 | 0.00 | 0.19 | 0.19 | 71 | 1012.4 |
| 20260902175248 | 84 | 147 | 0.0 | 4.0 | 0.00 | 0.19 | 0.19 | 75 | 1012.5 |
| 20260902175155 | 84 | 145 | 0.0 | 4.0 | 0.00 | 0.19 | 0.19 | 72 | 1012.5 |
| 20260902175048 | 83 | 147 | 0.0 | 4.0 | 0.00 | 0.19 | 0.19 | 74 | 1012.6 |
| 20260902174846 | 83 | 34 | 0.0 | 6.0 | 0.00 | 0.19 | 0.19 | 72 | 1012.5 |
| 20260902174651 | 83 | 34 | 0.0 | 6.0 | 0.00 | 0.19 | 0.19 | 71 | 1012.5 |
| 20260902174543 | 83 | 27 | 0.0 | 6.0 | 0.00 | 0.19 | 0.19 | 74 | 1012.4 |
| 20260902174347 | 83 | 37 | 0.0 | 6.0 | 0.00 | 0.19 | 0.19 | 73 | 1012.5 |
| 20260902174148 | 83 | 37 | 0.0 | 6.0 | 0.00 | 0.19 | 0.19 | 72 | 1012.4 |
| 20260902174048 | 83 | 48 | 0.0 | 6.0 | 0.00 | 0.19 | 0.19 | 74 | 1012.5 |
| 20260902173847 | 82 | 158 | 0.0 | 3.0 | 0.00 | 0.19 | 0.19 | 74 | 1012.6 |
| 20260902173650 | 82 | 158 | 0.0 | 5.0 | 0.00 | 0.19 | 0.19 | 70 | 1012.7 |
| 20260902173510 | 82 | 37 | 0.0 | 5.0 | 0.00 | 0.19 | 0.19 | 77 | 1012.8 |
| 20260902173501 | 83 | 42 | 0.0 | 5.0 | 0.00 | 0.19 | 0.19 | 72 | 1012.8 |
| 20260902173423 | 83 | 37 | 0.0 | 5.0 | 0.00 | 0.19 | 0.19 | 77 | 1012.8 |
| 20260902173140 | 82 | 37 | 0.0 | 5.0 | 0.00 | 0.19 | 0.19 | 73 | 1012.8 |
| 20260902172942 | 82 | 37 | 0.0 | 5.0 | 0.00 | 0.19 | 0.19 | 74 | 1012.8 |
| 20260902172640 | 82 | 51 | 0.0 | 5.0 | 0.00 | 0.19 | 0.19 | 72 | 1012.9 |
| 20260902172453 | 82 | 38 | 0.0 | 5.0 | 0.00 | 0.19 | 0.19 | 74 | 1013.0 |
| 20260902172444 | 82 | 51 | 0.0 | 5.0 | 0.00 | 0.19 | 0.19 | 73 | 1012.9 |
| 20260902172412 | 82 | 51 | 0.0 | 5.0 | 0.00 | 0.19 | 0.19 | 73 | 1013.0 |
| 20260902172041 | 82 | 62 | 0.0 | 5.0 | 0.00 | 0.19 | 0.19 | 75 | 1013.1 |
| 20260902171939 | 82 | 56 | 0.0 | 0.0 | 0.00 | 0.19 | 0.19 | 75 | 1013.0 |
| 20260902171648 | 82 | 62 | 0.0 | 0.0 | 0.00 | 0.19 | 0.19 | 75 | 1013.0 |
| 20260902171636 | 82 | 63 | 0.0 | 0.0 | 0.00 | 0.19 | 0.19 | 75 | 1013.1 |
| 20260902171539 | 82 | 199 | 0.0 | 0.0 | 0.00 | 0.19 | 0.19 | 79 | 1013.1 |
| 20260902171448 | 81 | 199 | 0.0 | 0.0 | 0.00 | 0.19 | 0.19 | 75 | 1013.2 |
| 20260902171411 | 81 | 199 | 0.0 | 0.0 | 0.00 | 0.19 | 0.19 | 77 | 1013.2 |
| 20260902171035 | 81 | 199 | 0.0 | 0.0 | 0.00 | 0.19 | 0.19 | 76 | 1013.2 |
| 20260902170834 | 80 | 200 | 0.0 | 0.0 | 0.00 | 0.19 | 0.19 | 77 | 1013.3 |
| 20260902170654 | 80 | 199 | 0.0 | 0.0 | 0.00 | 0.19 | 0.19 | 76 | 1013.3 |
| 20260902170636 | 80 | 199 | 0.0 | 0.0 | 0.00 | 0.19 | 0.19 | 76 | 1013.4 |
| 20260902170557 | 80 | 200 | 0.0 | 0.0 | 0.00 | 0.19 | 0.19 | 76 | 1013.3 |
| 20260902170509 | 79 | 200 | 0.0 | 0.0 | 0.00 | 0.19 | 0.19 | 77 | 1013.4 |
| 20260902170420 | 79 | 200 | 0.0 | 0.0 | 0.00 | 0.19 | 0.19 | 77 | 1013.4 |
| 20260902170107 | 79 | 200 | 0.0 | 1.0 | 0.00 | 0.19 | 0.19 | 78 | 1013.6 |
| 20260902165809 | 79 | 200 | 0.0 | 1.0 | 0.00 | 0.19 | 0.19 | 76 | 1013.6 |
| 20260902165647 | 79 | 200 | 0.0 | 1.0 | 0.00 | 0.19 | 0.19 | 76 | 1013.5 |
| 20260902165609 | 79 | 202 | 0.0 | 1.0 | 0.00 | 0.19 | 0.19 | 79 | 1013.5 |
| 20260902165449 | 79 | 200 | 0.0 | 1.0 | 0.00 | 0.19 | 0.19 | 76 | 1013.5 |
| 20260902165437 | 79 | 200 | 0.0 | 1.0 | 0.00 | 0.19 | 0.19 | 79 | 1013.5 |
| 20260902165403 | 79 | 200 | 0.0 | 1.0 | 0.00 | 0.19 | 0.19 | 76 | 1013.5 |
| 20260902165112 | 79 | 195 | 0.0 | 0.0 | 0.00 | 0.19 | 0.19 | 78 | 1013.4 |
| 20260902164803 | 78 | 193 | 0.0 | 0.0 | 0.00 | 0.19 | 0.19 | 77 | 1013.4 |
| 20260902164700 | 78 | 192 | 0.0 | 0.0 | 0.00 | 0.19 | 0.19 | 77 | 1013.3 |
| 20260902164644 | 78 | 193 | 0.0 | 0.0 | 0.00 | 0.19 | 0.19 | 78 | 1013.3 |
| 20260902164442 | 79 | 42 | 0.0 | 0.0 | 0.00 | 0.19 | 0.19 | 77 | 1013.3 |
| 20260902164429 | 79 | 197 | 0.0 | 0.0 | 0.00 | 0.19 | 0.19 | 77 | 1013.5 |
| 20260902164357 | 79 | 42 | 0.0 | 0.0 | 0.00 | 0.19 | 0.19 | 77 | 1013.3 |
| 20260902163959 | 80 | 41 | 0.0 | 0.0 | 0.00 | 0.19 | 0.19 | 76 | 1013.2 |
| 20260902163759 | 80 | 21 | 0.0 | 0.0 | 0.00 | 0.19 | 0.19 | 76 | 1013.2 |
| 20260902163647 | 80 | 17 | 0.0 | 0.0 | 0.00 | 0.19 | 0.19 | 78 | 1013.2 |
| 20260902163557 | 80 | 16 | 0.0 | 0.0 | 0.00 | 0.19 | 0.19 | 78 | 1013.2 |
| 20260902163444 | 79 | 41 | 0.0 | 0.0 | 0.00 | 0.19 | 0.19 | 79 | 1013.1 |
| 20260902163430 | 80 | 16 | 0.0 | 0.0 | 0.00 | 0.19 | 0.19 | 80 | 1013.2 |
| 20260902163359 | 79 | 42 | 0.0 | 0.0 | 0.00 | 0.19 | 0.19 | 79 | 1013.1 |
| 20260902162957 | 79 | 38 | 0.0 | 0.0 | 0.00 | 0.19 | 0.19 | 80 | 1013.1 |
| 20260902162857 | 78 | 45 | 0.0 | 0.0 | 0.00 | 0.19 | 0.19 | 79 | 1013.1 |
| 20260902162657 | 78 | 54 | 0.0 | 0.0 | 0.00 | 0.19 | 0.19 | 79 | 1013.1 |
| 20260902162645 | 78 | 47 | 0.0 | 0.0 | 0.00 | 0.19 | 0.19 | 79 | 1013.1 |
| 20260902162357 | 78 | 21 | 0.0 | 0.0 | 0.00 | 0.19 | 0.19 | 78 | 1013.1 |
| 20260902162155 | 78 | 42 | 0.0 | 0.0 | 0.00 | 0.19 | 0.19 | 80 | 1013.1 |
| 20260902162136 | 79 | 42 | 0.0 | 0.0 | 0.00 | 0.19 | 0.19 | 80 | 1013.1 |
| 20260902161954 | 78 | 38 | 0.0 | 0.0 | 0.00 | 0.19 | 0.19 | 79 | 1013.1 |
| 20260902161755 | 78 | 37 | 0.0 | 0.0 | 0.00 | 0.19 | 0.19 | 79 | 1013.1 |
| 20260902161636 | 78 | 38 | 0.0 | 0.0 | 0.00 | 0.19 | 0.19 | 78 | 1013.1 |
| 20260902161551 | 78 | 39 | 0.0 | 0.0 | 0.00 | 0.19 | 0.19 | 79 | 1013.1 |
| 20260902161449 | 78 | 38 | 0.0 | 0.0 | 0.00 | 0.19 | 0.19 | 80 | 1013.0 |
| 20260902161259 | 78 | 37 | 0.0 | 0.0 | 0.00 | 0.19 | 0.19 | 79 | 1013.0 |
| 20260902161133 | 78 | 34 | 0.0 | 0.0 | 0.00 | 0.19 | 0.19 | 79 | 1013.1 |
| 20260902160950 | 78 | 39 | 0.0 | 0.0 | 0.00 | 0.19 | 0.19 | 80 | 1013.1 |
| 20260902160749 | 78 | 38 | 0.0 | 0.0 | 0.00 | 0.19 | 0.19 | 80 | 1013.1 |
| 20260902160634 | 78 | 71 | 0.0 | 0.0 | 0.00 | 0.19 | 0.19 | 79 | 1013.1 |
| 20260902160549 | 78 | 80 | 0.0 | 0.0 | 0.00 | 0.19 | 0.19 | 80 | 1013.1 |
| 20260902160348 | 78 | 1 | 0.0 | 2.0 | 0.00 | 0.19 | 0.19 | 78 | 1013.0 |
| 20260902160148 | 78 | 200 | 0.0 | 4.0 | 0.00 | 0.19 | 0.19 | 77 | 1012.9 |
| 20260902160132 | 78 | 199 | 0.0 | 4.0 | 0.00 | 0.19 | 0.19 | 77 | 1013.0 |
| 20260902160049 | 78 | 199 | 0.0 | 4.0 | 0.00 | 0.19 | 0.19 | 77 | 1013.0 |
| 20260902155747 | 79 | 168 | 0.0 | 5.0 | 0.00 | 0.19 | 0.19 | 75 | 1013.0 |
| 20260902155631 | 79 | 113 | 0.0 | 5.0 | 0.00 | 0.19 | 0.19 | 76 | 1013.0 |
| 20260902155548 | 79 | 114 | 0.0 | 5.0 | 0.00 | 0.19 | 0.19 | 77 | 1013.0 |
| 20260902155346 | 79 | 149 | 0.0 | 5.0 | 0.00 | 0.19 | 0.19 | 76 | 1013.0 |
| 20260902155242 | 79 | 42 | 0.0 | 5.0 | 0.00 | 0.19 | 0.19 | 76 | 1013.0 |
| 20260902155131 | 79 | 42 | 0.0 | 5.0 | 0.00 | 0.19 | 0.19 | 78 | 1012.9 |
| 20260902154945 | 79 | 59 | 0.0 | 5.0 | 0.00 | 0.19 | 0.19 | 79 | 1012.9 |
| 20260902154844 | 78 | 16 | 0.0 | 0.0 | 0.00 | 0.19 | 0.19 | 77 | 1012.8 |
| 20260902154633 | 78 | 30 | 0.0 | 0.0 | 0.00 | 0.19 | 0.19 | 78 | 1012.7 |
| 20260902154544 | 78 | 28 | 0.0 | 0.0 | 0.00 | 0.19 | 0.19 | 80 | 1012.7 |
| 20260902154346 | 78 | 18 | 0.0 | 0.0 | 0.00 | 0.19 | 0.19 | 79 | 1012.6 |
| 20260902154144 | 78 | 1 | 0.0 | 0.0 | 0.00 | 0.19 | 0.19 | 79 | 1012.7 |
| 20260902154132 | 78 | 0 | 0.0 | 0.0 | 0.00 | 0.19 | 0.19 | 79 | 1012.7 |
| 20260902153956 | 77 | 56 | 0.0 | 0.0 | 0.00 | 0.19 | 0.19 | 79 | 1012.7 |
| 20260902153945 | 78 | 38 | 0.0 | 0.0 | 0.00 | 0.19 | 0.19 | 80 | 1012.7 |
| 20260902153917 | 77 | 63 | 0.0 | 0.0 | 0.00 | 0.19 | 0.19 | 78 | 1012.7 |
| 20260902153546 | 78 | 44 | 0.0 | 0.0 | 0.00 | 0.19 | 0.19 | 78 | 1012.7 |
| 20260902153444 | 78 | 62 | 0.0 | 0.0 | 0.00 | 0.19 | 0.19 | 79 | 1012.7 |
| 20260902153130 | 78 | 39 | 0.0 | 0.0 | 0.00 | 0.19 | 0.19 | 80 | 1012.7 |
| 20260902152945 | 78 | 38 | 0.0 | 0.0 | 0.00 | 0.19 | 0.19 | 79 | 1012.7 |
| 20260902152744 | 77 | 78 | 0.0 | 0.0 | 0.00 | 0.19 | 0.19 | 78 | 1012.8 |
| 20260902152629 | 77 | 69 | 0.0 | 0.0 | 0.00 | 0.19 | 0.19 | 78 | 1012.8 |
| 20260902152545 | 77 | 141 | 0.0 | 0.0 | 0.00 | 0.19 | 0.19 | 80 | 1012.8 |
| 20260902152442 | 78 | 51 | 0.0 | 0.0 | 0.00 | 0.19 | 0.19 | 82 | 1012.8 |
| 20260902152147 | 77 | 51 | 0.0 | 0.0 | 0.00 | 0.19 | 0.19 | 81 | 1012.7 |
| 20260902152129 | 77 | 52 | 0.0 | 0.0 | 0.00 | 0.19 | 0.19 | 82 | 1012.7 |
| 20260902152047 | 77 | 28 | 0.0 | 0.0 | 0.00 | 0.19 | 0.19 | 82 | 1012.8 |
| 20260902151747 | 76 | 24 | 0.0 | 0.0 | 0.00 | 0.19 | 0.19 | 82 | 1012.6 |
| 20260902151628 | 76 | 42 | 0.0 | 0.0 | 0.00 | 0.19 | 0.19 | 82 | 1012.6 |
| 20260902151533 | 76 | 51 | 0.0 | 0.0 | 0.00 | 0.19 | 0.19 | 83 | 1012.6 |
| 20260902151336 | 76 | 32 | 0.0 | 0.0 | 0.00 | 0.19 | 0.19 | 84 | 1012.6 |
| 20260902151236 | 76 | 35 | 0.0 | 0.0 | 0.00 | 0.19 | 0.19 | 81 | 1012.5 |
| 20260902151128 | 76 | 35 | 0.0 | 0.0 | 0.00 | 0.19 | 0.19 | 81 | 1012.5 |
| 20260902150934 | 76 | 48 | 0.0 | 0.0 | 0.00 | 0.19 | 0.19 | 81 | 1012.6 |
| 20260902150833 | 76 | 23 | 0.0 | 0.0 | 0.00 | 0.19 | 0.19 | 82 | 1012.5 |
| 20260902150632 | 76 | 39 | 0.0 | 0.0 | 0.00 | 0.19 | 0.19 | 83 | 1012.6 |
| 20260902150533 | 76 | 37 | 0.0 | 0.0 | 0.00 | 0.19 | 0.19 | 83 | 1012.6 |
| 20260902150330 | 76 | 48 | 0.0 | 0.0 | 0.00 | 0.19 | 0.19 | 83 | 1012.6 |
| 20260902150126 | 75 | 61 | 0.0 | 0.0 | 0.00 | 0.19 | 0.19 | 83 | 1012.6 |
| 20260902145929 | 75 | 37 | 0.0 | 0.0 | 0.00 | 0.19 | 0.19 | 82 | 1012.6 |
| 20260902145825 | 75 | 34 | 0.0 | 0.0 | 0.00 | 0.19 | 0.19 | 83 | 1012.7 |
| 20260902145628 | 75 | 35 | 0.0 | 0.0 | 0.00 | 0.19 | 0.19 | 83 | 1012.7 |
| 20260902145528 | 75 | 49 | 0.0 | 0.0 | 0.00 | 0.19 | 0.19 | 83 | 1012.7 |
| 20260902145507 | 75 | 25 | 0.0 | 0.0 | 0.00 | 0.19 | 0.19 | 82 | 1012.6 |
| 20260902145420 | 75 | 151 | 0.0 | 0.0 | 0.00 | 0.19 | 0.19 | 82 | 1012.7 |
| 20260902145339 | 75 | 151 | 0.0 | 0.0 | 0.00 | 0.19 | 0.19 | 82 | 1012.7 |
| 20260902144924 | 74 | 148 | 0.0 | 0.0 | 0.00 | 0.19 | 0.19 | 82 | 1012.8 |
| 20260902144727 | 74 | 149 | 0.0 | 0.0 | 0.00 | 0.19 | 0.19 | 82 | 1012.7 |
| 20260902144623 | 74 | 149 | 0.0 | 0.0 | 0.00 | 0.19 | 0.19 | 82 | 1012.8 |
| 20260902144523 | 74 | 151 | 0.0 | 0.0 | 0.00 | 0.19 | 0.19 | 83 | 1012.6 |
| 20260902144503 | 74 | 47 | 0.0 | 0.0 | 0.00 | 0.19 | 0.19 | 84 | 1012.7 |
| 20260902144414 | 74 | 56 | 0.0 | 0.0 | 0.00 | 0.19 | 0.19 | 85 | 1012.5 |
| 20260902144335 | 74 | 56 | 0.0 | 0.0 | 0.00 | 0.19 | 0.19 | 85 | 1012.5 |
| 20260902143907 | 74 | 54 | 0.0 | 0.0 | 0.00 | 0.19 | 0.19 | 85 | 1012.6 |
| 20260902143706 | 74 | 44 | 0.0 | 0.0 | 0.00 | 0.19 | 0.19 | 85 | 1012.6 |
| 20260902143623 | 74 | 55 | 0.0 | 0.0 | 0.00 | 0.19 | 0.19 | 85 | 1012.7 |
| 20260902143616 | 74 | 44 | 0.0 | 0.0 | 0.00 | 0.19 | 0.19 | 85 | 1012.6 |